Time,TemperatureF,DewpointF,PressureIn,WindDirection,WindDirectionDegrees,WindSpeedMPH,WindSpeedGustMPH,Humidity,HourlyPrecipIn,Conditions,Clouds,dailyrainin,SoftwareType,DateUTC
2013-01-23 00:03:00,6.9,-2.0,30.24,SW,215,2.0,2.0,66,0.00,,---,0.00,VWS V14.01,2013-01-23 05:03:00,
2013-01-23 00:04:00,6.9,-2.0,30.24,SW,215,2.0,2.0,66,0.00,,---,0.00,VWS V14.01,2013-01-23 05:04:00,
2013-01-23 00:05:00,6.9,-2.0,30.24,SW,215,2.0,2.0,66,0.00,,---,0.00,VWS V14.01,2013-01-23 05:05:00,
2013-01-23 00:06:00,6.9,-2.0,30.24,SW,215,2.0,2.0,66,0.00,,---,0.00,VWS V14.01,2013-01-23 05:06:00,
2013-01-23 00:08:00,6.9,-2.0,30.21,SW,215,2.3,2.3,66,0.00,,---,0.00,VWS V14.01,2013-01-23 05:08:00,
2013-01-23 00:10:00,6.9,-2.0,30.21,SW,215,2.3,2.3,66,0.00,,---,0.00,VWS V14.01,2013-01-23 05:10:00,
2013-01-23 00:11:00,6.9,-2.0,30.21,SW,215,2.3,2.3,66,0.00,,---,0.00,VWS V14.01,2013-01-23 05:11:00,
2013-01-23 00:12:00,6.9,-2.0,30.21,SW,215,2.3,2.3,66,0.00,,---,0.00,VWS V14.01,2013-01-23 05:12:00,
2013-01-23 00:14:00,6.9,-2.0,30.21,SW,215,0.0,2.3,66,0.00,,---,0.00,VWS V14.01,2013-01-23 05:14:00,
2013-01-23 00:16:00,6.9,-2.0,30.21,SW,215,0.0,0.0,66,0.00,,---,0.00,VWS V14.01,2013-01-23 05:16:00,
2013-01-23 00:18:00,6.9,-2.0,30.21,SW,215,0.0,0.0,66,0.00,,---,0.00,VWS V14.01,2013-01-23 05:18:00,
2013-01-23 00:20:00,7.1,-1.9,30.21,SW,215,0.0,0.0,66,0.00,,---,0.00,VWS V14.01,2013-01-23 05:20:00,
2013-01-23 00:22:00,6.9,-2.0,30.21,SW,215,0.0,0.0,66,0.00,,---,0.00,VWS V14.01,2013-01-23 05:22:00,
2013-01-23 00:24:00,7.1,-1.9,30.21,SW,215,3.0,3.0,66,0.00,,---,0.00,VWS V14.01,2013-01-23 05:24:00,
2013-01-23 00:26:00,7.1,-1.9,30.21,SW,215,3.0,3.0,66,0.00,,---,0.00,VWS V14.01,2013-01-23 05:26:00,
2013-01-23 00:27:00,7.1,-1.9,30.21,SW,215,2.3,3.0,66,0.00,,---,0.00,VWS V14.01,2013-01-23 05:27:00,
2013-01-23 00:28:00,7.1,-1.9,30.21,South,170,0.0,3.0,66,0.00,,---,0.00,VWS V14.01,2013-01-23 05:28:00,
2013-01-23 00:30:00,7.1,-1.9,30.21,South,170,0.0,0.0,66,0.00,,---,0.00,VWS V14.01,2013-01-23 05:30:00,
2013-01-23 00:32:00,7.1,-1.9,30.21,SW,215,0.0,0.0,66,0.00,,---,0.00,VWS V14.01,2013-01-23 05:32:00,
2013-01-23 00:33:00,7.1,-1.9,30.21,SW,215,0.0,0.0,66,0.00,,---,0.00,VWS V14.01,2013-01-23 05:33:00,
2013-01-23 00:34:00,7.1,-1.9,30.21,SW,215,0.0,0.0,66,0.00,,---,0.00,VWS V14.01,2013-01-23 05:34:00,
2013-01-23 00:36:00,7.1,-1.9,30.21,SW,215,0.0,0.0,66,0.00,,---,0.00,VWS V14.01,2013-01-23 05:36:00,
2013-01-23 00:38:00,7.1,-1.9,30.21,SW,215,0.0,0.0,66,0.00,,---,0.00,VWS V14.01,2013-01-23 05:38:00,
2013-01-23 00:40:00,7.1,-1.9,30.21,SW,215,0.0,0.0,66,0.00,,---,0.00,VWS V14.01,2013-01-23 05:40:00,
2013-01-23 00:42:00,7.1,-1.9,30.21,SW,215,0.0,0.0,66,0.00,,---,0.00,VWS V14.01,2013-01-23 05:42:00,
2013-01-23 00:43:00,7.1,-1.9,30.21,SW,215,0.0,0.0,66,0.00,,---,0.00,VWS V14.01,2013-01-23 05:43:00,
2013-01-23 00:44:00,7.1,-1.9,30.21,South,170,0.0,0.0,66,0.00,,---,0.00,VWS V14.01,2013-01-23 05:44:00,
2013-01-23 00:46:00,7.1,-1.9,30.21,South,170,0.0,0.0,66,0.00,,---,0.00,VWS V14.01,2013-01-23 05:46:00,
2013-01-23 00:48:00,7.1,-1.9,30.21,South,170,0.0,0.0,66,0.00,,---,0.00,VWS V14.01,2013-01-23 05:48:00,
2013-01-23 00:50:00,7.1,-1.9,30.21,South,170,0.0,0.0,66,0.00,,---,0.00,VWS V14.01,2013-01-23 05:50:00,
2013-01-23 00:52:00,7.1,-1.9,30.21,South,170,0.0,0.0,66,0.00,,---,0.00,VWS V14.01,2013-01-23 05:52:00,
2013-01-23 00:53:00,7.3,-1.7,30.21,South,170,0.0,0.0,66,0.00,,---,0.00,VWS V14.01,2013-01-23 05:53:00,
2013-01-23 00:54:00,7.3,-1.7,30.21,South,170,0.0,0.0,66,0.00,,---,0.00,VWS V14.01,2013-01-23 05:54:00,
2013-01-23 00:56:00,7.3,-1.7,30.21,South,170,0.0,0.0,66,0.00,,---,0.00,VWS V14.01,2013-01-23 05:56:00,
2013-01-23 00:58:00,7.1,-1.9,30.21,South,170,0.0,0.0,66,0.00,,---,0.00,VWS V14.01,2013-01-23 05:58:00,
2013-01-23 00:59:00,7.1,-1.9,30.21,South,170,0.0,0.0,66,0.00,,---,0.00,VWS V14.01,2013-01-23 05:59:00,
2013-01-23 01:04:00,7.3,-1.7,30.21,South,170,0.0,0.0,66,0.00,,---,0.00,VWS V14.01,2013-01-23 06:04:00,
2013-01-23 01:08:00,7.1,-1.9,30.21,South,170,0.0,0.0,66,0.00,,---,0.00,VWS V14.01,2013-01-23 06:08:00,
2013-01-23 01:09:00,7.1,-1.9,30.21,South,170,0.0,0.0,66,0.00,,---,0.00,VWS V14.01,2013-01-23 06:09:00,
2013-01-23 01:10:00,7.1,-1.9,30.21,South,170,0.0,0.0,66,0.00,,---,0.00,VWS V14.01,2013-01-23 06:10:00,
2013-01-23 01:12:00,7.3,-1.7,30.21,South,170,0.0,0.0,66,0.00,,---,0.00,VWS V14.01,2013-01-23 06:12:00,
2013-01-23 01:14:00,7.3,-1.7,30.21,South,170,0.0,0.0,66,0.00,,---,0.00,VWS V14.01,2013-01-23 06:14:00,
2013-01-23 01:15:00,7.3,-1.7,30.21,South,170,0.0,0.0,66,0.00,,---,0.00,VWS V14.01,2013-01-23 06:15:00,
2013-01-23 01:16:00,7.3,-1.7,30.21,South,170,0.0,0.0,66,0.00,,---,0.00,VWS V14.01,2013-01-23 06:16:00,
2013-01-23 01:18:00,7.3,-1.7,30.21,South,170,0.0,0.0,66,0.00,,---,0.00,VWS V14.01,2013-01-23 06:18:00,
2013-01-23 01:20:00,7.1,-1.9,30.21,South,170,0.0,0.0,66,0.00,,---,0.00,VWS V14.01,2013-01-23 06:20:00,
2013-01-23 01:22:00,7.1,-1.9,30.21,South,170,0.0,0.0,66,0.00,,---,0.00,VWS V14.01,2013-01-23 06:22:00,
2013-01-23 01:24:00,7.1,-1.9,30.21,South,170,0.0,0.0,66,0.00,,---,0.00,VWS V14.01,2013-01-23 06:24:00,
2013-01-23 01:25:00,7.1,-1.9,30.21,South,170,0.0,0.0,66,0.00,,---,0.00,VWS V14.01,2013-01-23 06:25:00,
2013-01-23 01:26:00,7.1,-1.9,30.21,South,170,0.0,0.0,66,0.00,,---,0.00,VWS V14.01,2013-01-23 06:26:00,
2013-01-23 01:28:00,7.1,-1.9,30.21,South,170,0.0,0.0,66,0.00,,---,0.00,VWS V14.01,2013-01-23 06:28:00,
2013-01-23 01:30:00,6.9,-2.0,30.21,South,170,0.0,0.0,66,0.00,,---,0.00,VWS V14.01,2013-01-23 06:30:00,
2013-01-23 01:32:00,6.9,-2.0,30.21,South,170,0.0,0.0,66,0.00,,---,0.00,VWS V14.01,2013-01-23 06:32:00,
2013-01-23 01:34:00,6.9,-2.0,30.21,South,170,0.0,0.0,66,0.00,,---,0.00,VWS V14.01,2013-01-23 06:34:00,
2013-01-23 01:35:00,6.9,-2.0,30.21,South,170,0.0,0.0,66,0.00,,---,0.00,VWS V14.01,2013-01-23 06:35:00,
2013-01-23 01:36:00,6.9,-2.0,30.21,South,170,0.0,0.0,66,0.00,,---,0.00,VWS V14.01,2013-01-23 06:36:00,
2013-01-23 01:38:00,6.9,-2.0,30.21,South,170,0.0,0.0,66,0.00,,---,0.00,VWS V14.01,2013-01-23 06:38:00,
2013-01-23 01:41:00,6.9,-2.0,30.21,South,170,0.0,0.0,66,0.00,,---,0.00,VWS V14.01,2013-01-23 06:41:00,
2013-01-23 01:42:00,6.9,-2.0,30.21,South,170,0.0,0.0,66,0.00,,---,0.00,VWS V14.01,2013-01-23 06:42:00,
2013-01-23 01:44:00,6.9,-2.0,30.21,South,170,0.0,0.0,66,0.00,,---,0.00,VWS V14.01,2013-01-23 06:44:00,
2013-01-23 01:46:00,6.9,-2.0,30.21,South,170,0.0,0.0,66,0.00,,---,0.00,VWS V14.01,2013-01-23 06:46:00,
2013-01-23 01:48:00,6.9,-2.0,30.21,South,170,0.0,0.0,66,0.00,,---,0.00,VWS V14.01,2013-01-23 06:48:00,
2013-01-23 01:50:00,6.7,-2.2,30.21,South,170,0.0,0.0,66,0.00,,---,0.00,VWS V14.01,2013-01-23 06:50:00,
2013-01-23 01:51:00,6.7,-2.2,30.21,South,170,0.0,0.0,66,0.00,,---,0.00,VWS V14.01,2013-01-23 06:51:00,
2013-01-23 01:52:00,6.7,-2.2,30.21,South,170,0.0,0.0,66,0.00,,---,0.00,VWS V14.01,2013-01-23 06:52:00,
2013-01-23 01:54:00,6.9,-2.0,30.21,South,170,0.0,0.0,66,0.00,,---,0.00,VWS V14.01,2013-01-23 06:54:00,
2013-01-23 01:56:00,6.9,-2.0,30.21,South,170,0.0,0.0,66,0.00,,---,0.00,VWS V14.01,2013-01-23 06:56:00,
2013-01-23 01:58:00,6.9,-2.0,30.21,South,170,0.0,0.0,66,0.00,,---,0.00,VWS V14.01,2013-01-23 06:58:00,
2013-01-23 02:02:00,6.9,-2.0,30.21,NE,35,2.0,2.0,66,0.00,,---,0.00,VWS V14.01,2013-01-23 07:02:00,
2013-01-23 02:07:00,6.9,-2.0,30.21,NE,35,2.0,2.0,66,0.00,,---,0.00,VWS V14.01,2013-01-23 07:07:00,
2013-01-23 02:08:00,6.6,-2.4,30.21,North,350,3.0,3.0,66,0.00,,---,0.00,VWS V14.01,2013-01-23 07:08:00,
2013-01-23 02:10:00,6.6,-2.4,30.21,North,350,3.0,3.0,66,0.00,,---,0.00,VWS V14.01,2013-01-23 07:10:00,
2013-01-23 02:12:00,6.4,-2.5,30.21,NE,35,3.3,3.3,66,0.00,,---,0.00,VWS V14.01,2013-01-23 07:12:00,
2013-01-23 02:14:00,6.4,-2.5,30.21,NE,35,3.3,3.3,66,0.00,,---,0.00,VWS V14.01,2013-01-23 07:14:00,
2013-01-23 02:16:00,6.2,-2.7,30.21,NE,35,3.3,3.3,66,0.00,,---,0.00,VWS V14.01,2013-01-23 07:16:00,
2013-01-23 02:17:00,6.2,-2.7,30.21,NE,35,3.3,3.3,66,0.00,,---,0.00,VWS V14.01,2013-01-23 07:17:00,
2013-01-23 02:18:00,6.2,-2.7,30.21,NE,35,3.3,3.3,66,0.00,,---,0.00,VWS V14.01,2013-01-23 07:18:00,
2013-01-23 02:22:00,5.8,-3.1,30.21,NE,35,3.3,3.3,66,0.00,,---,0.00,VWS V14.01,2013-01-23 07:22:00,
2013-01-23 02:24:00,5.8,-3.1,30.21,NE,35,3.3,3.3,66,0.00,,---,0.00,VWS V14.01,2013-01-23 07:24:00,
2013-01-23 02:26:00,5.8,-3.1,30.21,NE,35,3.3,3.3,66,0.00,,---,0.00,VWS V14.01,2013-01-23 07:26:00,
2013-01-23 02:28:00,5.8,-3.1,30.21,ENE,58,3.6,3.6,66,0.00,,---,0.00,VWS V14.01,2013-01-23 07:28:00,
2013-01-23 02:30:00,5.7,-3.2,30.21,ENE,58,3.6,3.6,66,0.00,,---,0.00,VWS V14.01,2013-01-23 07:30:00,
2013-01-23 02:32:00,5.7,-3.2,30.21,ENE,58,3.6,3.6,66,0.00,,---,0.00,VWS V14.01,2013-01-23 07:32:00,
2013-01-23 02:33:00,5.7,-3.2,30.21,ENE,58,3.6,3.6,66,0.00,,---,0.00,VWS V14.01,2013-01-23 07:33:00,
2013-01-23 02:34:00,5.7,-3.2,30.21,ENE,58,3.6,3.6,66,0.00,,---,0.00,VWS V14.01,2013-01-23 07:34:00,
2013-01-23 02:36:00,5.7,-3.2,30.21,ENE,58,3.6,3.6,66,0.00,,---,0.00,VWS V14.01,2013-01-23 07:36:00,
2013-01-23 02:38:00,5.7,-3.2,30.21,ENE,58,3.6,3.6,66,0.00,,---,0.00,VWS V14.01,2013-01-23 07:38:00,
2013-01-23 02:43:00,5.5,-3.4,30.21,NNE,12,3.0,3.6,66,0.00,,---,0.00,VWS V14.01,2013-01-23 07:43:00,
2013-01-23 02:44:00,5.5,-3.4,30.21,East,80,5.0,5.0,66,0.00,,---,0.00,VWS V14.01,2013-01-23 07:44:00,
2013-01-23 02:46:00,5.3,-3.6,30.21,East,80,5.0,5.0,66,0.00,,---,0.00,VWS V14.01,2013-01-23 07:46:00,
2013-01-23 02:48:00,5.3,-3.6,30.21,East,80,5.0,5.0,66,0.00,,---,0.00,VWS V14.01,2013-01-23 07:48:00,
2013-01-23 02:49:00,5.3,-3.6,30.21,East,80,5.0,5.0,66,0.00,,---,0.00,VWS V14.01,2013-01-23 07:49:00,
2013-01-23 02:50:00,5.3,-3.6,30.21,East,80,5.0,5.0,66,0.00,,---,0.00,VWS V14.01,2013-01-23 07:50:00,
2013-01-23 02:52:00,5.3,-3.6,30.21,East,80,5.0,5.0,66,0.00,,---,0.00,VWS V14.01,2013-01-23 07:52:00,
2013-01-23 02:54:00,5.3,-3.6,30.21,East,80,5.0,5.0,66,0.00,,---,0.00,VWS V14.01,2013-01-23 07:54:00,
2013-01-23 02:56:00,5.3,-3.6,30.21,East,80,5.0,5.0,66,0.00,,---,0.00,VWS V14.01,2013-01-23 07:56:00,
2013-01-23 02:58:00,5.3,-3.6,30.21,East,80,5.0,5.0,66,0.00,,---,0.00,VWS V14.01,2013-01-23 07:58:00,
2013-01-23 02:59:00,5.3,-3.6,30.21,East,80,5.0,5.0,66,0.00,,---,0.00,VWS V14.01,2013-01-23 07:59:00,
2013-01-23 03:00:00,5.3,-3.6,30.21,East,80,5.0,5.0,66,0.00,,---,0.00,VWS V14.01,2013-01-23 08:00:00,
2013-01-23 03:02:00,5.3,-3.6,30.21,East,80,5.0,5.0,66,0.00,,---,0.00,VWS V14.01,2013-01-23 08:02:00,
2013-01-23 03:04:00,5.3,-3.6,30.21,East,80,5.0,5.0,66,0.00,,---,0.00,VWS V14.01,2013-01-23 08:04:00,
2013-01-23 03:06:00,5.3,-3.6,30.21,East,80,5.0,5.0,66,0.00,,---,0.00,VWS V14.01,2013-01-23 08:06:00,
2013-01-23 03:08:00,5.3,-3.6,30.21,East,80,5.0,5.0,66,0.00,,---,0.00,VWS V14.01,2013-01-23 08:08:00,
2013-01-23 03:10:00,5.3,-3.6,30.21,ENE,58,3.6,5.0,66,0.00,,---,0.00,VWS V14.01,2013-01-23 08:10:00,
2013-01-23 03:12:00,5.3,-3.6,30.21,ENE,58,3.6,3.6,66,0.00,,---,0.00,VWS V14.01,2013-01-23 08:12:00,
2013-01-23 03:14:00,5.3,-3.6,30.21,ENE,58,3.6,3.6,66,0.00,,---,0.00,VWS V14.01,2013-01-23 08:14:00,
2013-01-23 03:15:00,5.1,-3.7,30.21,ENE,58,3.6,3.6,66,0.00,,---,0.00,VWS V14.01,2013-01-23 08:15:00,
2013-01-23 03:16:00,5.1,-3.7,30.21,ENE,58,3.6,3.6,66,0.00,,---,0.00,VWS V14.01,2013-01-23 08:16:00,
2013-01-23 03:18:00,5.1,-3.7,30.21,ENE,58,3.6,3.6,66,0.00,,---,0.00,VWS V14.01,2013-01-23 08:18:00,
2013-01-23 03:20:00,5.1,-3.7,30.21,ENE,58,3.6,3.6,66,0.00,,---,0.00,VWS V14.01,2013-01-23 08:20:00,
2013-01-23 03:22:00,4.9,-3.9,30.21,ENE,58,2.0,3.6,66,0.00,,---,0.00,VWS V14.01,2013-01-23 08:22:00,
2013-01-23 03:24:00,4.9,-3.9,30.21,ENE,58,2.0,2.0,66,0.00,,---,0.00,VWS V14.01,2013-01-23 08:24:00,
2013-01-23 03:25:00,4.9,-3.9,30.21,ENE,58,2.0,2.0,66,0.00,,---,0.00,VWS V14.01,2013-01-23 08:25:00,
2013-01-23 03:26:00,4.9,-3.9,30.21,ENE,58,2.0,2.0,66,0.00,,---,0.00,VWS V14.01,2013-01-23 08:26:00,
2013-01-23 03:28:00,5.1,-3.7,30.21,ENE,58,2.0,2.0,66,0.00,,---,0.00,VWS V14.01,2013-01-23 08:28:00,
2013-01-23 03:30:00,5.1,-3.7,30.21,ENE,58,2.0,2.0,66,0.00,,---,0.00,VWS V14.01,2013-01-23 08:30:00,
2013-01-23 03:31:00,5.1,-3.7,30.21,ENE,58,2.0,2.0,66,0.00,,---,0.00,VWS V14.01,2013-01-23 08:31:00,
2013-01-23 03:32:00,5.1,-3.7,30.21,ENE,58,2.0,2.0,66,0.00,,---,0.00,VWS V14.01,2013-01-23 08:32:00,
2013-01-23 03:34:00,5.1,-3.7,30.21,ENE,58,2.0,2.0,66,0.00,,---,0.00,VWS V14.01,2013-01-23 08:34:00,
2013-01-23 03:36:00,5.1,-3.7,30.21,ENE,58,2.0,2.0,66,0.00,,---,0.00,VWS V14.01,2013-01-23 08:36:00,
2013-01-23 03:38:00,5.1,-3.7,30.21,ENE,58,2.3,2.3,66,0.00,,---,0.00,VWS V14.01,2013-01-23 08:38:00,
2013-01-23 03:41:00,5.1,-3.7,30.21,ENE,58,2.3,2.3,66,0.00,,---,0.00,VWS V14.01,2013-01-23 08:41:00,
2013-01-23 03:44:00,5.1,-3.7,30.21,ENE,58,2.3,2.3,66,0.00,,---,0.00,VWS V14.01,2013-01-23 08:44:00,
2013-01-23 03:46:00,5.3,-3.6,30.21,ENE,58,1.3,2.3,66,0.00,,---,0.00,VWS V14.01,2013-01-23 08:46:00,
2013-01-23 03:47:00,5.3,-3.6,30.21,NE,35,0.0,1.3,66,0.00,,---,0.00,VWS V14.01,2013-01-23 08:47:00,
2013-01-23 03:48:00,5.3,-3.6,30.21,NE,35,0.0,1.3,66,0.00,,---,0.00,VWS V14.01,2013-01-23 08:48:00,
2013-01-23 03:50:00,5.1,-3.7,30.21,NE,35,0.0,0.0,66,0.00,,---,0.00,VWS V14.01,2013-01-23 08:50:00,
2013-01-23 03:52:00,5.3,-3.6,30.21,NE,35,0.0,0.0,66,0.00,,---,0.00,VWS V14.01,2013-01-23 08:52:00,
2013-01-23 03:54:00,5.1,-3.7,30.21,NE,35,0.0,0.0,66,0.00,,---,0.00,VWS V14.01,2013-01-23 08:54:00,
2013-01-23 03:56:00,5.3,-3.6,30.21,NE,35,0.0,0.0,66,0.00,,---,0.00,VWS V14.01,2013-01-23 08:56:00,
2013-01-23 03:57:00,5.3,-3.6,30.21,NE,35,0.0,0.0,66,0.00,,---,0.00,VWS V14.01,2013-01-23 08:57:00,
2013-01-23 03:58:00,5.3,-3.6,30.21,NE,35,0.0,0.0,66,0.00,,---,0.00,VWS V14.01,2013-01-23 08:58:00,
2013-01-23 04:00:00,5.1,-3.7,30.21,NE,35,3.0,3.0,66,0.00,,---,0.00,VWS V14.01,2013-01-23 09:00:00,
2013-01-23 04:02:00,5.1,-3.7,30.21,NE,35,3.0,3.0,66,0.00,,---,0.00,VWS V14.01,2013-01-23 09:02:00,
2013-01-23 04:04:00,5.1,-3.7,30.21,NE,35,3.0,3.0,66,0.00,,---,0.00,VWS V14.01,2013-01-23 09:04:00,
2013-01-23 04:06:00,5.1,-3.7,30.21,NE,35,3.0,3.0,66,0.00,,---,0.00,VWS V14.01,2013-01-23 09:06:00,
2013-01-23 04:07:00,5.3,-3.6,30.21,NE,35,3.0,3.0,66,0.00,,---,0.00,VWS V14.01,2013-01-23 09:07:00,
2013-01-23 04:08:00,5.3,-3.6,30.21,NE,35,3.0,3.0,66,0.00,,---,0.00,VWS V14.01,2013-01-23 09:08:00,
2013-01-23 04:10:00,5.1,-3.7,30.21,NE,35,3.0,3.0,66,0.00,,---,0.00,VWS V14.01,2013-01-23 09:10:00,
2013-01-23 04:12:00,5.1,-3.7,30.21,NE,35,3.0,3.0,66,0.00,,---,0.00,VWS V14.01,2013-01-23 09:12:00,
2013-01-23 04:14:00,5.1,-3.7,30.21,NE,35,3.0,3.0,66,0.00,,---,0.00,VWS V14.01,2013-01-23 09:14:00,
2013-01-23 04:16:00,5.1,-3.7,30.21,NE,35,3.0,3.0,66,0.00,,---,0.00,VWS V14.01,2013-01-23 09:16:00,
2013-01-23 04:17:00,5.1,-3.7,30.21,NE,35,3.0,3.0,66,0.00,,---,0.00,VWS V14.01,2013-01-23 09:17:00,
2013-01-23 04:18:00,5.1,-3.7,30.21,NE,35,3.0,3.0,66,0.00,,---,0.00,VWS V14.01,2013-01-23 09:18:00,
2013-01-23 04:22:00,5.1,-3.7,30.21,NE,35,3.0,3.0,66,0.00,,---,0.00,VWS V14.01,2013-01-23 09:22:00,
2013-01-23 04:23:00,5.1,-3.7,30.21,NE,35,3.0,3.0,66,0.00,,---,0.00,VWS V14.01,2013-01-23 09:23:00,
2013-01-23 04:26:00,4.9,-3.9,30.21,NE,35,3.0,3.0,66,0.00,,---,0.00,VWS V14.01,2013-01-23 09:26:00,
2013-01-23 04:28:00,5.1,-3.7,30.21,NE,35,3.0,3.0,66,0.00,,---,0.00,VWS V14.01,2013-01-23 09:28:00,
2013-01-23 04:30:00,4.9,-3.9,30.21,NE,35,3.0,3.0,66,0.00,,---,0.00,VWS V14.01,2013-01-23 09:30:00,
2013-01-23 04:32:00,4.9,-3.9,30.21,NE,35,3.0,3.0,66,0.00,,---,0.00,VWS V14.01,2013-01-23 09:32:00,
2013-01-23 04:34:00,5.1,-3.7,30.21,NE,35,3.0,3.0,66,0.00,,---,0.00,VWS V14.01,2013-01-23 09:34:00,
2013-01-23 04:36:00,5.1,-3.7,30.21,NE,35,3.0,3.0,66,0.00,,---,0.00,VWS V14.01,2013-01-23 09:36:00,
2013-01-23 04:38:00,4.9,-3.9,30.21,ENE,58,0.0,3.0,66,0.00,,---,0.00,VWS V14.01,2013-01-23 09:38:00,
2013-01-23 04:39:00,4.9,-3.9,30.21,ENE,58,0.0,0.0,66,0.00,,---,0.00,VWS V14.01,2013-01-23 09:39:00,
2013-01-23 04:40:00,4.9,-3.9,30.21,ENE,58,0.0,0.0,66,0.00,,---,0.00,VWS V14.01,2013-01-23 09:40:00,
2013-01-23 04:44:00,5.1,-3.7,30.21,ENE,58,0.0,0.0,66,0.00,,---,0.00,VWS V14.01,2013-01-23 09:44:00,
2013-01-23 04:46:00,5.1,-3.7,30.21,ENE,58,0.0,0.0,66,0.00,,---,0.00,VWS V14.01,2013-01-23 09:46:00,
2013-01-23 04:48:00,5.1,-3.7,30.21,South,170,2.0,2.0,66,0.00,,---,0.00,VWS V14.01,2013-01-23 09:48:00,
2013-01-23 04:50:00,5.1,-3.7,30.21,South,170,2.0,2.0,66,0.00,,---,0.00,VWS V14.01,2013-01-23 09:50:00,
2013-01-23 04:52:00,5.1,-3.7,30.21,South,170,2.0,2.0,66,0.00,,---,0.00,VWS V14.01,2013-01-23 09:52:00,
2013-01-23 04:54:00,5.1,-3.7,30.21,South,170,2.0,2.0,66,0.00,,---,0.00,VWS V14.01,2013-01-23 09:54:00,
2013-01-23 04:55:00,5.1,-3.7,30.21,South,170,2.0,2.0,66,0.00,,---,0.00,VWS V14.01,2013-01-23 09:55:00,
2013-01-23 04:56:00,5.1,-3.7,30.21,South,170,2.0,2.0,66,0.00,,---,0.00,VWS V14.01,2013-01-23 09:56:00,
2013-01-23 04:58:00,5.1,-3.7,30.21,South,170,2.0,2.0,66,0.00,,---,0.00,VWS V14.01,2013-01-23 09:58:00,
2013-01-23 05:00:00,5.1,-3.7,30.21,South,170,2.0,2.0,66,0.00,,---,0.00,VWS V14.01,2013-01-23 10:00:00,
2013-01-23 05:06:00,5.1,-3.7,30.21,South,170,2.0,2.0,66,0.00,,---,0.00,VWS V14.01,2013-01-23 10:06:00,
2013-01-23 05:08:00,5.3,-3.6,30.21,South,170,2.0,2.0,66,0.00,,---,0.00,VWS V14.01,2013-01-23 10:08:00,
2013-01-23 05:10:00,5.3,-3.6,30.21,East,80,2.3,2.3,66,0.00,,---,0.00,VWS V14.01,2013-01-23 10:10:00,
2013-01-23 05:12:00,5.3,-3.6,30.21,East,80,2.3,2.3,66,0.00,,---,0.00,VWS V14.01,2013-01-23 10:12:00,
2013-01-23 05:14:00,5.3,-3.6,30.21,East,80,2.3,2.3,66,0.00,,---,0.00,VWS V14.01,2013-01-23 10:14:00,
2013-01-23 05:16:00,5.3,-3.6,30.21,East,80,2.3,2.3,66,0.00,,---,0.00,VWS V14.01,2013-01-23 10:16:00,
2013-01-23 05:17:00,5.3,-3.6,30.21,East,80,2.3,2.3,66,0.00,,---,0.00,VWS V14.01,2013-01-23 10:17:00,
2013-01-23 05:18:00,5.3,-3.6,30.21,East,80,2.3,2.3,66,0.00,,---,0.00,VWS V14.01,2013-01-23 10:18:00,
2013-01-23 05:22:00,5.3,-3.6,30.21,East,80,2.3,2.3,66,0.00,,---,0.00,VWS V14.01,2013-01-23 10:22:00,
2013-01-23 05:24:00,5.3,-3.6,30.21,South,170,0.0,2.3,66,0.00,,---,0.00,VWS V14.01,2013-01-23 10:24:00,
2013-01-23 05:26:00,5.3,-3.6,30.21,South,170,0.0,0.0,66,0.00,,---,0.00,VWS V14.01,2013-01-23 10:26:00,
2013-01-23 05:27:00,5.3,-3.6,30.21,South,170,0.0,0.0,66,0.00,,---,0.00,VWS V14.01,2013-01-23 10:27:00,
2013-01-23 05:28:00,5.3,-3.6,30.21,South,170,0.0,0.0,66,0.00,,---,0.00,VWS V14.01,2013-01-23 10:28:00,
2013-01-23 05:30:00,5.3,-3.6,30.21,South,170,0.0,0.0,66,0.00,,---,0.00,VWS V14.01,2013-01-23 10:30:00,
2013-01-23 05:32:00,5.3,-3.6,30.21,South,170,0.0,0.0,66,0.00,,---,0.00,VWS V14.01,2013-01-23 10:32:00,
2013-01-23 05:33:00,5.3,-3.6,30.21,South,170,0.0,0.0,66,0.00,,---,0.00,VWS V14.01,2013-01-23 10:33:00,
2013-01-23 05:34:00,5.3,-3.6,30.21,South,170,0.0,0.0,66,0.00,,---,0.00,VWS V14.01,2013-01-23 10:34:00,
2013-01-23 05:36:00,5.3,-3.6,30.21,South,170,0.0,0.0,66,0.00,,---,0.00,VWS V14.01,2013-01-23 10:36:00,
2013-01-23 05:38:00,5.3,-3.6,30.21,South,170,0.0,0.0,66,0.00,,---,0.00,VWS V14.01,2013-01-23 10:38:00,
2013-01-23 05:42:00,5.3,-3.6,30.21,South,170,0.0,0.0,66,0.00,,---,0.00,VWS V14.01,2013-01-23 10:42:00,
2013-01-23 05:43:00,5.3,-3.6,30.21,South,170,0.0,0.0,66,0.00,,---,0.00,VWS V14.01,2013-01-23 10:43:00,
2013-01-23 05:44:00,5.3,-3.6,30.21,South,170,0.0,0.0,66,0.00,,---,0.00,VWS V14.01,2013-01-23 10:44:00,
2013-01-23 05:46:00,5.3,-3.6,30.21,South,170,0.0,0.0,66,0.00,,---,0.00,VWS V14.01,2013-01-23 10:46:00,
2013-01-23 05:48:00,5.3,-3.6,30.18,South,170,0.0,0.0,66,0.00,,---,0.00,VWS V14.01,2013-01-23 10:48:00,
2013-01-23 05:49:00,5.3,-3.6,30.18,South,170,0.0,0.0,66,0.00,,---,0.00,VWS V14.01,2013-01-23 10:49:00,
2013-01-23 05:50:00,5.3,-3.6,30.18,South,170,0.0,0.0,66,0.00,,---,0.00,VWS V14.01,2013-01-23 10:50:00,
2013-01-23 05:52:00,5.3,-3.6,30.18,South,170,0.0,0.0,66,0.00,,---,0.00,VWS V14.01,2013-01-23 10:52:00,
2013-01-23 05:54:00,5.3,-3.6,30.18,South,170,0.0,0.0,66,0.00,,---,0.00,VWS V14.01,2013-01-23 10:54:00,
2013-01-23 05:56:00,5.3,-3.6,30.18,South,170,0.0,0.0,66,0.00,,---,0.00,VWS V14.01,2013-01-23 10:56:00,
2013-01-23 05:58:00,5.3,-3.6,30.18,South,170,0.0,0.0,66,0.00,,---,0.00,VWS V14.01,2013-01-23 10:58:00,
2013-01-23 05:59:00,5.3,-3.6,30.18,South,170,0.0,0.0,66,0.00,,---,0.00,VWS V14.01,2013-01-23 10:59:00,
2013-01-23 06:04:00,5.3,-3.6,30.18,South,170,0.0,0.0,66,0.00,,---,0.00,VWS V14.01,2013-01-23 11:04:00,
2013-01-23 06:08:00,5.5,-3.4,30.18,South,170,0.0,0.0,66,0.00,,---,0.00,VWS V14.01,2013-01-23 11:08:00,
2013-01-23 06:09:00,5.5,-3.4,30.18,South,170,0.0,0.0,66,0.00,,---,0.00,VWS V14.01,2013-01-23 11:09:00,
2013-01-23 06:10:00,5.5,-3.4,30.18,South,170,0.0,0.0,66,0.00,,---,0.00,VWS V14.01,2013-01-23 11:10:00,
2013-01-23 06:12:00,5.5,-3.4,30.18,South,170,0.0,0.0,66,0.00,,---,0.00,VWS V14.01,2013-01-23 11:12:00,
2013-01-23 06:14:00,5.5,-3.4,30.18,South,170,0.0,0.0,66,0.00,,---,0.00,VWS V14.01,2013-01-23 11:14:00,
2013-01-23 06:15:00,5.5,-3.4,30.18,South,170,0.0,0.0,66,0.00,,---,0.00,VWS V14.01,2013-01-23 11:15:00,
2013-01-23 06:16:00,5.5,-3.4,30.18,South,170,0.0,0.0,66,0.00,,---,0.00,VWS V14.01,2013-01-23 11:16:00,
2013-01-23 06:18:00,5.5,-3.4,30.18,South,170,2.0,2.0,66,0.00,,---,0.00,VWS V14.01,2013-01-23 11:18:00,
2013-01-23 06:20:00,5.5,-3.4,30.18,SSE,148,0.0,2.0,66,0.00,,---,0.00,VWS V14.01,2013-01-23 11:20:00,
2013-01-23 06:22:00,5.5,-3.4,30.18,SSE,148,0.0,0.0,66,0.00,,---,0.00,VWS V14.01,2013-01-23 11:22:00,
2013-01-23 06:24:00,5.7,-3.2,30.18,South,170,3.0,3.0,66,0.00,,---,0.00,VWS V14.01,2013-01-23 11:24:00,
2013-01-23 06:25:00,5.7,-3.2,30.18,South,170,3.0,3.0,66,0.00,,---,0.00,VWS V14.01,2013-01-23 11:25:00,
2013-01-23 06:26:00,5.7,-3.2,30.18,South,170,3.0,3.0,66,0.00,,---,0.00,VWS V14.01,2013-01-23 11:26:00,
2013-01-23 06:28:00,5.7,-3.2,30.18,South,170,3.0,3.0,66,0.00,,---,0.00,VWS V14.01,2013-01-23 11:28:00,
2013-01-23 06:30:00,5.7,-3.2,30.18,SE,125,4.3,4.3,66,0.00,,---,0.00,VWS V14.01,2013-01-23 11:30:00,
2013-01-23 06:32:00,5.7,-3.2,30.21,SE,125,4.3,4.3,66,0.00,,---,0.00,VWS V14.01,2013-01-23 11:32:00,
2013-01-23 06:34:00,5.7,-3.2,30.21,South,170,0.0,4.3,66,0.00,,---,0.00,VWS V14.01,2013-01-23 11:34:00,
2013-01-23 06:36:00,5.7,-3.2,30.21,South,170,0.0,0.0,66,0.00,,---,0.00,VWS V14.01,2013-01-23 11:36:00,
2013-01-23 06:38:00,5.7,-3.2,30.21,SE,125,3.6,3.6,66,0.00,,---,0.00,VWS V14.01,2013-01-23 11:38:00,
2013-01-23 06:40:00,5.7,-3.2,30.21,SE,125,3.6,3.6,66,0.00,,---,0.00,VWS V14.01,2013-01-23 11:40:00,
2013-01-23 06:41:00,5.7,-3.2,30.21,SE,125,3.6,3.6,66,0.00,,---,0.00,VWS V14.01,2013-01-23 11:41:00,
2013-01-23 06:42:00,5.7,-3.2,30.21,SE,125,3.0,3.6,66,0.00,,---,0.00,VWS V14.01,2013-01-23 11:42:00,
2013-01-23 06:46:00,5.7,-3.2,30.21,SE,125,2.3,3.0,66,0.00,,---,0.00,VWS V14.01,2013-01-23 11:46:00,
2013-01-23 06:48:00,5.7,-3.2,30.18,SE,125,2.0,2.0,66,0.00,,---,0.00,VWS V14.01,2013-01-23 11:48:00,
2013-01-23 06:50:00,5.7,-3.2,30.18,South,170,0.0,3.0,66,0.00,,---,0.00,VWS V14.01,2013-01-23 11:50:00,
2013-01-23 06:52:00,5.8,-3.1,30.18,South,170,0.0,0.0,66,0.00,,---,0.00,VWS V14.01,2013-01-23 11:52:00,
2013-01-23 06:54:00,5.8,-3.1,30.18,SE,125,2.0,2.0,66,0.00,,---,0.00,VWS V14.01,2013-01-23 11:54:00,
2013-01-23 06:56:00,5.8,-3.1,30.18,SE,125,2.0,2.0,66,0.00,,---,0.00,VWS V14.01,2013-01-23 11:56:00,
2013-01-23 06:57:00,5.8,-3.1,30.18,South,170,1.7,2.0,66,0.00,,---,0.00,VWS V14.01,2013-01-23 11:57:00,
2013-01-23 06:58:00,5.8,-3.1,30.18,SE,125,2.3,2.3,66,0.00,,---,0.00,VWS V14.01,2013-01-23 11:58:00,
2013-01-23 07:02:00,5.8,-3.1,30.18,South,170,1.7,4.0,66,0.00,,---,0.00,VWS V14.01,2013-01-23 12:02:00,
2013-01-23 07:07:00,5.8,-3.1,30.18,South,170,1.7,4.0,66,0.00,,---,0.00,VWS V14.01,2013-01-23 12:07:00,
2013-01-23 07:10:00,5.8,-3.1,30.18,South,170,0.0,4.0,66,0.00,,---,0.00,VWS V14.01,2013-01-23 12:10:00,
2013-01-23 07:12:00,5.8,-3.1,30.18,South,170,2.0,2.0,66,0.00,,---,0.00,VWS V14.01,2013-01-23 12:12:00,
2013-01-23 07:13:00,5.8,-3.1,30.18,SE,125,3.0,3.0,66,0.00,,---,0.00,VWS V14.01,2013-01-23 12:13:00,
2013-01-23 07:14:00,5.8,-3.1,30.18,SE,125,3.6,3.6,66,0.00,,---,0.00,VWS V14.01,2013-01-23 12:14:00,
2013-01-23 07:16:00,5.8,-3.1,30.18,SE,125,3.6,3.6,66,0.00,,---,0.00,VWS V14.01,2013-01-23 12:16:00,
2013-01-23 07:18:00,5.8,-3.1,30.18,South,170,4.0,4.0,66,0.00,,---,0.00,VWS V14.01,2013-01-23 12:18:00,
2013-01-23 07:20:00,5.8,-3.1,30.18,South,170,1.7,4.0,66,0.00,,---,0.00,VWS V14.01,2013-01-23 12:20:00,
2013-01-23 07:23:00,6.0,-2.9,30.18,SE,125,0.0,1.7,66,0.00,,---,0.00,VWS V14.01,2013-01-23 12:23:00,
2013-01-23 07:24:00,6.0,-2.9,30.18,South,170,2.3,2.3,66,0.00,,---,0.00,VWS V14.01,2013-01-23 12:24:00,
2013-01-23 07:26:00,6.0,-2.9,30.18,South,170,3.0,4.3,66,0.00,,---,0.00,VWS V14.01,2013-01-23 12:26:00,
2013-01-23 07:28:00,6.0,-2.9,30.18,South,170,2.3,3.3,66,0.00,,---,0.00,VWS V14.01,2013-01-23 12:28:00,
2013-01-23 07:30:00,6.0,-2.9,30.18,SSE,148,3.6,3.6,66,0.00,,---,0.00,VWS V14.01,2013-01-23 12:30:00,
2013-01-23 07:32:00,6.0,-2.9,30.18,SW,215,1.7,4.0,66,0.00,,---,0.00,VWS V14.01,2013-01-23 12:32:00,
2013-01-23 07:33:00,6.2,-2.7,30.18,SW,215,1.7,1.7,66,0.00,,---,0.00,VWS V14.01,2013-01-23 12:33:00,
2013-01-23 07:34:00,6.2,-2.7,30.18,SW,215,1.7,1.7,66,0.00,,---,0.00,VWS V14.01,2013-01-23 12:34:00,
2013-01-23 07:36:00,6.2,-2.7,30.18,SW,215,3.0,3.0,66,0.00,,---,0.00,VWS V14.01,2013-01-23 12:36:00,
2013-01-23 07:38:00,6.2,-2.7,30.18,SW,215,4.3,4.3,66,0.00,,---,0.00,VWS V14.01,2013-01-23 12:38:00,
2013-01-23 07:39:00,6.2,-2.7,30.18,SW,215,1.7,4.3,66,0.00,,---,0.00,VWS V14.01,2013-01-23 12:39:00,
2013-01-23 07:40:00,6.2,-2.7,30.18,SE,125,0.0,4.3,66,0.00,,---,0.00,VWS V14.01,2013-01-23 12:40:00,
2013-01-23 07:42:00,6.2,-2.7,30.18,SW,215,3.6,3.6,66,0.00,,---,0.00,VWS V14.01,2013-01-23 12:42:00,
2013-01-23 07:44:00,6.4,-2.5,30.18,South,170,3.6,3.6,66,0.00,,---,0.00,VWS V14.01,2013-01-23 12:44:00,
2013-01-23 07:46:00,6.4,-2.5,30.18,South,170,3.3,3.6,66,0.00,,---,0.00,VWS V14.01,2013-01-23 12:46:00,
2013-01-23 07:48:00,6.4,-2.5,30.18,SW,215,2.3,3.3,66,0.00,,---,0.00,VWS V14.01,2013-01-23 12:48:00,
2013-01-23 07:49:00,6.4,-2.5,30.18,SW,215,3.6,3.6,66,0.00,,---,0.00,VWS V14.01,2013-01-23 12:49:00,
2013-01-23 07:50:00,6.6,-2.4,30.18,South,170,1.7,3.6,66,0.00,,---,0.00,VWS V14.01,2013-01-23 12:50:00,
2013-01-23 07:52:00,6.6,-2.4,30.18,SW,215,4.3,4.3,66,0.00,,---,0.00,VWS V14.01,2013-01-23 12:52:00,
2013-01-23 07:54:00,6.6,-2.4,30.18,South,170,2.0,2.3,66,0.00,,---,0.00,VWS V14.01,2013-01-23 12:54:00,
2013-01-23 07:56:00,6.6,-2.4,30.18,SSE,148,5.3,5.3,66,0.00,,---,0.00,VWS V14.01,2013-01-23 12:56:00,
2013-01-23 07:58:00,6.6,-2.4,30.18,SW,215,4.3,5.3,66,0.00,,---,0.00,VWS V14.01,2013-01-23 12:58:00,
2013-01-23 07:59:00,6.6,-2.4,30.18,SW,215,3.6,4.6,66,0.00,,---,0.00,VWS V14.01,2013-01-23 12:59:00,
2013-01-23 08:04:00,6.7,-2.2,30.18,SW,215,3.0,4.6,66,0.00,,---,0.00,VWS V14.01,2013-01-23 13:04:00,
2013-01-23 08:05:00,6.9,-2.0,30.18,SW,215,7.3,7.3,66,0.00,,---,0.00,VWS V14.01,2013-01-23 13:05:00,
2013-01-23 08:06:00,6.9,-2.0,30.18,SW,215,4.3,7.3,66,0.00,,---,0.00,VWS V14.01,2013-01-23 13:06:00,
2013-01-23 08:08:00,6.9,-2.0,30.18,WSW,238,4.6,4.6,66,0.00,,---,0.00,VWS V14.01,2013-01-23 13:08:00,
2013-01-23 08:10:00,6.9,-2.0,30.18,SW,215,3.6,3.6,66,0.00,,---,0.00,VWS V14.01,2013-01-23 13:10:00,
2013-01-23 08:12:00,6.9,-2.0,30.18,SW,215,5.3,5.3,66,0.00,,---,0.00,VWS V14.01,2013-01-23 13:12:00,
2013-01-23 08:14:00,6.9,-2.0,30.18,WSW,238,1.7,5.3,66,0.00,,---,0.00,VWS V14.01,2013-01-23 13:14:00,
2013-01-23 08:15:00,7.1,-1.9,30.18,South,170,4.3,4.3,66,0.00,,---,0.00,VWS V14.01,2013-01-23 13:15:00,
2013-01-23 08:16:00,7.1,-1.9,30.18,South,170,4.3,4.3,66,0.00,,---,0.00,VWS V14.01,2013-01-23 13:16:00,
2013-01-23 08:18:00,6.9,-2.0,30.18,SW,215,2.3,5.3,66,0.00,,---,0.00,VWS V14.01,2013-01-23 13:18:00,
2013-01-23 08:20:00,7.1,-1.9,30.18,SW,215,4.3,8.9,66,0.00,,---,0.00,VWS V14.01,2013-01-23 13:20:00,
2013-01-23 08:22:00,7.1,-1.9,30.18,SW,215,3.0,3.6,66,0.00,,---,0.00,VWS V14.01,2013-01-23 13:22:00,
2013-01-23 08:24:00,7.1,-1.9,30.18,SW,215,5.0,5.0,66,0.00,,---,0.00,VWS V14.01,2013-01-23 13:24:00,
2013-01-23 08:25:00,7.1,-1.9,30.18,SW,215,3.3,5.0,66,0.00,,---,0.00,VWS V14.01,2013-01-23 13:25:00,
2013-01-23 08:26:00,7.1,-1.9,30.18,SW,215,3.3,5.0,66,0.00,,---,0.00,VWS V14.01,2013-01-23 13:26:00,
2013-01-23 08:28:00,7.3,-1.7,30.18,South,170,1.7,3.3,66,0.00,,---,0.00,VWS V14.01,2013-01-23 13:28:00,
2013-01-23 08:30:00,7.3,-1.7,30.18,WSW,238,2.0,2.0,66,0.00,,---,0.00,VWS V14.01,2013-01-23 13:30:00,
2013-01-23 08:32:00,7.3,-1.7,30.15,SW,215,2.3,2.3,66,0.00,,---,0.00,VWS V14.01,2013-01-23 13:32:00,
2013-01-23 08:34:00,7.3,-1.7,30.15,SW,215,3.6,3.6,66,0.00,,---,0.00,VWS V14.01,2013-01-23 13:34:00,
2013-01-23 08:35:00,7.3,-1.7,30.15,WSW,238,2.3,4.3,66,0.00,,---,0.00,VWS V14.01,2013-01-23 13:35:00,
2013-01-23 08:36:00,7.3,-1.7,30.15,WSW,238,2.3,4.3,66,0.00,,---,0.00,VWS V14.01,2013-01-23 13:36:00,
2013-01-23 08:38:00,7.5,-1.5,30.15,SW,215,1.3,5.0,66,0.00,,---,0.00,VWS V14.01,2013-01-23 13:38:00,
2013-01-23 08:40:00,7.5,-1.5,30.15,SW,215,4.0,4.0,66,0.00,,---,0.00,VWS V14.01,2013-01-23 13:40:00,
2013-01-23 08:42:00,7.5,-1.5,30.15,WSW,238,5.3,5.3,66,0.00,,---,0.00,VWS V14.01,2013-01-23 13:42:00,
2013-01-23 08:44:00,7.6,-1.3,30.15,SW,215,4.0,5.3,66,0.00,,---,0.00,VWS V14.01,2013-01-23 13:44:00,
2013-01-23 08:46:00,7.6,-1.3,30.15,South,170,3.0,5.3,66,0.00,,---,0.00,VWS V14.01,2013-01-23 13:46:00,
2013-01-23 08:48:00,7.8,-1.2,30.15,SW,215,6.0,6.0,66,0.00,,---,0.00,VWS V14.01,2013-01-23 13:48:00,
2013-01-23 08:50:00,7.8,-1.2,30.15,SW,215,6.0,6.0,66,0.00,,---,0.00,VWS V14.01,2013-01-23 13:50:00,
2013-01-23 08:51:00,7.8,-1.2,30.15,West,260,5.3,6.0,66,0.00,,---,0.00,VWS V14.01,2013-01-23 13:51:00,
2013-01-23 08:52:00,7.8,-1.2,30.15,SW,215,5.3,6.0,66,0.00,,---,0.00,VWS V14.01,2013-01-23 13:52:00,
2013-01-23 08:54:00,7.8,-1.2,30.15,SW,215,5.0,5.3,66,0.00,,---,0.00,VWS V14.01,2013-01-23 13:54:00,
2013-01-23 08:56:00,7.8,-1.2,30.15,SW,215,4.3,5.0,66,0.00,,---,0.00,VWS V14.01,2013-01-23 13:56:00,
2013-01-23 08:58:00,8.0,-1.0,30.15,SW,215,4.3,5.0,66,0.00,,---,0.00,VWS V14.01,2013-01-23 13:58:00,
2013-01-23 09:01:00,8.0,-1.0,30.15,WSW,238,2.3,6.0,66,0.00,,---,0.00,VWS V14.01,2013-01-23 14:01:00,
2013-01-23 09:04:00,8.2,-0.8,30.15,WSW,238,2.3,6.0,66,0.00,,---,0.00,VWS V14.01,2013-01-23 14:04:00,
2013-01-23 09:06:00,8.2,-0.8,30.15,SW,215,5.3,5.3,66,0.00,,---,0.00,VWS V14.01,2013-01-23 14:06:00,
2013-01-23 09:08:00,8.2,-0.8,30.15,SW,215,4.3,5.3,66,0.00,,---,0.00,VWS V14.01,2013-01-23 14:08:00,
2013-01-23 09:10:00,8.4,-0.6,30.15,South,170,2.3,4.3,66,0.00,,---,0.00,VWS V14.01,2013-01-23 14:10:00,
2013-01-23 09:11:00,8.4,-0.6,30.15,West,260,0.0,2.3,66,0.00,,---,0.00,VWS V14.01,2013-01-23 14:11:00,
2013-01-23 09:12:00,8.4,-0.6,30.15,West,260,0.0,2.3,66,0.00,,---,0.00,VWS V14.01,2013-01-23 14:12:00,
2013-01-23 09:14:00,8.5,-0.5,30.15,WSW,238,3.6,3.6,66,0.00,,---,0.00,VWS V14.01,2013-01-23 14:14:00,
2013-01-23 09:16:00,8.5,-0.5,30.18,WSW,238,3.6,3.6,66,0.00,,---,0.00,VWS V14.01,2013-01-23 14:16:00,
2013-01-23 09:18:00,8.5,-0.5,30.18,West,260,4.0,4.0,66,0.00,,---,0.00,VWS V14.01,2013-01-23 14:18:00,
2013-01-23 09:20:00,8.7,-0.3,30.18,South,170,3.0,5.0,66,0.00,,---,0.00,VWS V14.01,2013-01-23 14:20:00,
2013-01-23 09:21:00,8.7,-0.3,30.18,West,260,4.0,4.0,66,0.00,,---,0.00,VWS V14.01,2013-01-23 14:21:00,
2013-01-23 09:22:00,8.7,-0.3,30.18,West,260,4.0,4.0,66,0.00,,---,0.00,VWS V14.01,2013-01-23 14:22:00,
2013-01-23 09:24:00,8.7,-0.3,30.18,South,170,2.3,4.0,66,0.00,,---,0.00,VWS V14.01,2013-01-23 14:24:00,
2013-01-23 09:26:00,8.7,-0.3,30.18,SW,215,3.6,3.6,66,0.00,,---,0.00,VWS V14.01,2013-01-23 14:26:00,
2013-01-23 09:27:00,8.7,-0.3,30.18,SW,215,5.0,5.0,66,0.00,,---,0.00,VWS V14.01,2013-01-23 14:27:00,
2013-01-23 09:28:00,8.7,-0.3,30.18,SW,215,5.0,5.0,66,0.00,,---,0.00,VWS V14.01,2013-01-23 14:28:00,
2013-01-23 09:30:00,8.7,-0.3,30.18,West,260,3.3,5.0,66,0.00,,---,0.00,VWS V14.01,2013-01-23 14:30:00,
2013-01-23 09:32:00,8.9,-0.1,30.18,SW,215,4.3,5.0,66,0.00,,---,0.00,VWS V14.01,2013-01-23 14:32:00,
2013-01-23 09:34:00,8.9,-0.1,30.18,SW,215,4.3,4.3,66,0.00,,---,0.00,VWS V14.01,2013-01-23 14:34:00,
2013-01-23 09:36:00,8.9,-0.1,30.18,SW,215,7.3,7.3,66,0.00,,---,0.00,VWS V14.01,2013-01-23 14:36:00,
2013-01-23 09:37:00,8.9,-0.1,30.18,SW,215,7.3,7.3,66,0.00,,---,0.00,VWS V14.01,2013-01-23 14:37:00,
2013-01-23 09:38:00,8.9,-0.1,30.18,SW,215,6.0,7.3,66,0.00,,---,0.00,VWS V14.01,2013-01-23 14:38:00,
2013-01-23 09:40:00,9.1,0.1,30.18,SW,215,2.3,6.0,66,0.00,,---,0.00,VWS V14.01,2013-01-23 14:40:00,
2013-01-23 09:42:00,9.1,0.0,30.18,SW,215,2.3,2.3,66,0.00,,---,0.00,VWS V14.01,2013-01-23 14:42:00,
2013-01-23 09:44:00,9.1,0.1,30.18,SW,215,7.0,7.0,66,0.00,,---,0.00,VWS V14.01,2013-01-23 14:44:00,
2013-01-23 09:46:00,9.3,0.2,30.18,SW,215,6.0,7.0,66,0.00,,---,0.00,VWS V14.01,2013-01-23 14:46:00,
2013-01-23 09:47:00,9.3,0.2,30.18,WNW,282,3.3,6.0,66,0.00,,---,0.00,VWS V14.01,2013-01-23 14:47:00,
2013-01-23 09:48:00,9.3,0.2,30.18,SW,215,3.6,6.0,66,0.00,,---,0.00,VWS V14.01,2013-01-23 14:48:00,
2013-01-23 09:50:00,9.6,0.6,30.18,SW,215,4.3,4.3,66,0.00,,---,0.00,VWS V14.01,2013-01-23 14:50:00,
2013-01-23 09:52:00,9.6,0.6,30.18,WSW,238,6.0,6.0,66,0.00,,---,0.00,VWS V14.01,2013-01-23 14:52:00,
2013-01-23 09:54:00,9.6,0.6,30.18,SW,215,4.3,6.0,66,0.00,,---,0.00,VWS V14.01,2013-01-23 14:54:00,
2013-01-23 09:56:00,9.6,0.6,30.18,West,260,6.3,6.3,66,0.00,,---,0.00,VWS V14.01,2013-01-23 14:56:00,
2013-01-23 09:57:00,9.8,0.7,30.18,WSW,238,3.6,6.3,66,0.00,,---,0.00,VWS V14.01,2013-01-23 14:57:00,
2013-01-23 09:58:00,9.8,0.7,30.18,WSW,238,3.6,6.3,66,0.00,,---,0.00,VWS V14.01,2013-01-23 14:58:00,
2013-01-23 10:02:00,9.8,0.7,30.18,SW,215,5.0,5.0,66,0.00,,---,0.00,VWS V14.01,2013-01-23 15:02:00,
2013-01-23 10:04:00,9.8,0.7,30.18,SW,215,5.0,5.0,66,0.00,,---,0.00,VWS V14.01,2013-01-23 15:04:00,
2013-01-23 10:06:00,10.2,1.1,30.18,SW,215,5.0,5.6,66,0.00,,---,0.00,VWS V14.01,2013-01-23 15:06:00,
2013-01-23 10:08:00,10.2,1.1,30.18,SW,215,5.0,7.9,66,0.00,,---,0.00,VWS V14.01,2013-01-23 15:08:00,
2013-01-23 10:10:00,10.2,1.1,30.18,South,170,5.6,5.6,66,0.00,,---,0.00,VWS V14.01,2013-01-23 15:10:00,
2013-01-23 10:12:00,10.2,1.1,30.18,SW,215,6.3,6.3,66,0.00,,---,0.00,VWS V14.01,2013-01-23 15:12:00,
2013-01-23 10:13:00,10.3,1.2,30.18,SW,215,5.0,6.3,66,0.00,,---,0.00,VWS V14.01,2013-01-23 15:13:00,
2013-01-23 10:14:00,10.3,1.2,30.18,SW,215,5.0,6.3,66,0.00,,---,0.00,VWS V14.01,2013-01-23 15:14:00,
2013-01-23 10:16:00,10.3,1.2,30.18,SW,215,9.6,9.6,66,0.00,,---,0.00,VWS V14.01,2013-01-23 15:16:00,
2013-01-23 10:18:00,10.5,1.4,30.18,SW,215,8.6,9.6,66,0.00,,---,0.00,VWS V14.01,2013-01-23 15:18:00,
2013-01-23 10:20:00,10.5,1.4,30.18,SW,215,4.6,8.6,66,0.00,,---,0.00,VWS V14.01,2013-01-23 15:20:00,
2013-01-23 10:22:00,10.5,1.4,30.18,SW,215,11.9,11.9,66,0.00,,---,0.00,VWS V14.01,2013-01-23 15:22:00,
2013-01-23 10:23:00,10.5,1.4,30.18,SW,215,5.0,11.9,66,0.00,,---,0.00,VWS V14.01,2013-01-23 15:23:00,
2013-01-23 10:24:00,10.5,1.4,30.18,SW,215,5.0,11.9,66,0.00,,---,0.00,VWS V14.01,2013-01-23 15:24:00,
2013-01-23 10:26:00,10.5,1.4,30.18,SW,215,8.6,8.6,66,0.00,,---,0.00,VWS V14.01,2013-01-23 15:26:00,
2013-01-23 10:28:00,10.5,1.4,30.18,West,260,5.3,5.3,66,0.00,,---,0.00,VWS V14.01,2013-01-23 15:28:00,
2013-01-23 10:30:00,10.7,1.6,30.18,West,260,5.3,5.3,66,0.00,,---,0.00,VWS V14.01,2013-01-23 15:30:00,
2013-01-23 10:32:00,10.7,1.6,30.18,West,260,4.3,8.9,66,0.00,,---,0.00,VWS V14.01,2013-01-23 15:32:00,
2013-01-23 10:33:00,10.7,1.6,30.18,SW,215,5.0,5.0,66,0.00,,---,0.00,VWS V14.01,2013-01-23 15:33:00,
2013-01-23 10:34:00,10.7,1.6,30.18,SW,215,5.0,5.0,66,0.00,,---,0.00,VWS V14.01,2013-01-23 15:34:00,
2013-01-23 10:36:00,10.9,1.8,30.18,SW,215,4.0,5.0,66,0.00,,---,0.00,VWS V14.01,2013-01-23 15:36:00,
2013-01-23 10:38:00,11.1,1.9,30.18,West,260,4.0,4.0,66,0.00,,---,0.00,VWS V14.01,2013-01-23 15:38:00,
2013-01-23 10:40:00,11.1,1.9,30.18,South,170,5.0,5.0,66,0.00,,---,0.00,VWS V14.01,2013-01-23 15:40:00,
2013-01-23 10:42:00,11.2,2.1,30.18,South,170,5.0,5.0,66,0.00,,---,0.00,VWS V14.01,2013-01-23 15:42:00,
2013-01-23 10:43:00,11.2,2.1,30.18,SW,215,7.3,7.3,66,0.00,,---,0.00,VWS V14.01,2013-01-23 15:43:00,
2013-01-23 10:44:00,11.2,2.1,30.18,SW,215,7.3,7.3,66,0.00,,---,0.00,VWS V14.01,2013-01-23 15:44:00,
2013-01-23 10:46:00,11.2,2.1,30.18,WSW,238,4.6,11.9,66,0.00,,---,0.00,VWS V14.01,2013-01-23 15:46:00,
2013-01-23 10:48:00,11.6,2.5,30.15,West,260,4.0,5.6,66,0.00,,---,0.00,VWS V14.01,2013-01-23 15:48:00,
2013-01-23 10:52:00,11.6,2.5,30.15,WSW,238,4.0,6.3,66,0.00,,---,0.00,VWS V14.01,2013-01-23 15:52:00,
2013-01-23 10:54:00,11.4,2.3,30.15,WSW,238,4.0,4.0,66,0.00,,---,0.00,VWS V14.01,2013-01-23 15:54:00,
2013-01-23 10:56:00,11.4,2.3,30.15,SW,215,6.0,6.0,66,0.00,,---,0.00,VWS V14.01,2013-01-23 15:56:00,
2013-01-23 10:59:00,11.6,2.5,30.15,SW,215,6.0,6.0,66,0.00,,---,0.00,VWS V14.01,2013-01-23 15:59:00,
2013-01-23 11:04:00,11.6,2.5,30.15,SW,215,6.0,6.0,66,0.00,,---,0.00,VWS V14.01,2013-01-23 16:04:00,
2013-01-23 11:06:00,12.0,2.8,30.18,SW,215,8.6,8.6,66,0.00,,---,0.00,VWS V14.01,2013-01-23 16:06:00,
2013-01-23 11:08:00,12.0,2.8,30.18,West,260,6.3,8.6,66,0.00,,---,0.00,VWS V14.01,2013-01-23 16:08:00,
2013-01-23 11:09:00,12.0,2.8,30.18,West,260,6.3,6.3,66,0.00,,---,0.00,VWS V14.01,2013-01-23 16:09:00,
2013-01-23 11:10:00,12.0,2.8,30.18,West,260,5.3,6.3,66,0.00,,---,0.00,VWS V14.01,2013-01-23 16:10:00,
2013-01-23 11:12:00,12.0,2.8,30.18,SW,215,4.6,8.3,66,0.00,,---,0.00,VWS V14.01,2013-01-23 16:12:00,
2013-01-23 11:14:00,12.1,3.0,30.18,SW,215,6.0,6.0,66,0.00,,---,0.00,VWS V14.01,2013-01-23 16:14:00,
2013-01-23 11:16:00,12.1,3.0,30.18,SW,215,6.0,6.0,66,0.00,,---,0.00,VWS V14.01,2013-01-23 16:16:00,
2013-01-23 11:18:00,12.1,3.0,30.18,SW,215,6.3,6.3,66,0.00,,---,0.00,VWS V14.01,2013-01-23 16:18:00,
2013-01-23 11:19:00,12.1,3.0,30.18,SW,215,6.3,6.3,66,0.00,,---,0.00,VWS V14.01,2013-01-23 16:19:00,
2013-01-23 11:20:00,12.1,3.0,30.18,SW,215,9.3,9.3,66,0.00,,---,0.00,VWS V14.01,2013-01-23 16:20:00,
2013-01-23 11:22:00,12.1,3.0,30.18,SW,215,8.3,9.3,66,0.00,,---,0.00,VWS V14.01,2013-01-23 16:22:00,
2013-01-23 11:24:00,12.1,3.0,30.18,SW,215,9.9,9.9,66,0.00,,---,0.00,VWS V14.01,2013-01-23 16:24:00,
2013-01-23 11:26:00,12.1,3.0,30.18,SW,215,3.6,9.9,66,0.00,,---,0.00,VWS V14.01,2013-01-23 16:26:00,
2013-01-23 11:28:00,12.3,3.1,30.18,SW,215,5.3,5.3,66,0.00,,---,0.00,VWS V14.01,2013-01-23 16:28:00,
2013-01-23 11:29:00,12.3,3.1,30.18,WSW,238,9.9,9.9,66,0.00,,---,0.00,VWS V14.01,2013-01-23 16:29:00,
2013-01-23 11:30:00,12.3,3.1,30.18,WSW,238,9.9,9.9,66,0.00,,---,0.00,VWS V14.01,2013-01-23 16:30:00,
2013-01-23 11:32:00,12.3,3.1,30.18,South,170,8.6,9.9,66,0.00,,---,0.00,VWS V14.01,2013-01-23 16:32:00,
2013-01-23 11:34:00,12.3,3.1,30.18,SW,215,12.6,12.6,66,0.00,,---,0.00,VWS V14.01,2013-01-23 16:34:00,
2013-01-23 11:36:00,12.3,3.1,30.18,NW,305,4.0,12.6,66,0.00,,---,0.00,VWS V14.01,2013-01-23 16:36:00,
2013-01-23 11:38:00,12.3,3.1,30.18,SW,215,5.3,5.3,66,0.00,,---,0.00,VWS V14.01,2013-01-23 16:38:00,
2013-01-23 11:40:00,12.5,3.3,30.18,SW,215,7.9,7.9,66,0.00,,---,0.00,VWS V14.01,2013-01-23 16:40:00,
2013-01-23 11:42:00,12.7,3.5,30.18,West,260,5.6,7.9,66,0.00,,---,0.00,VWS V14.01,2013-01-23 16:42:00,
2013-01-23 11:44:00,12.7,3.5,30.18,South,170,13.9,13.9,66,0.00,,---,0.00,VWS V14.01,2013-01-23 16:44:00,
2013-01-23 11:45:00,12.7,3.5,30.18,SW,215,7.3,13.9,66,0.00,,---,0.00,VWS V14.01,2013-01-23 16:45:00,
2013-01-23 11:46:00,12.7,3.5,30.18,SW,215,7.3,13.9,66,0.00,,---,0.00,VWS V14.01,2013-01-23 16:46:00,
2013-01-23 11:48:00,12.9,3.7,30.15,West,260,4.6,7.3,66,0.00,,---,0.00,VWS V14.01,2013-01-23 16:48:00,
2013-01-23 11:50:00,12.9,3.7,30.15,SW,215,6.0,6.0,66,0.00,,---,0.00,VWS V14.01,2013-01-23 16:50:00,
2013-01-23 11:52:00,13.0,3.8,30.15,South,170,8.6,8.6,66,0.00,,---,0.00,VWS V14.01,2013-01-23 16:52:00,
2013-01-23 11:54:00,13.0,3.8,30.15,South,170,8.6,8.6,66,0.00,,---,0.00,VWS V14.01,2013-01-23 16:54:00,
2013-01-23 11:55:00,13.2,4.0,30.15,South,170,8.6,8.6,66,0.00,,---,0.00,VWS V14.01,2013-01-23 16:55:00,
2013-01-23 11:56:00,13.2,4.0,30.15,SW,215,11.9,11.9,66,0.00,,---,0.00,VWS V14.01,2013-01-23 16:56:00,
2013-01-23 11:58:00,13.2,4.0,30.15,South,170,2.3,11.9,66,0.00,,---,0.00,VWS V14.01,2013-01-23 16:58:00,
2013-01-23 12:00:00,13.6,5.0,30.15,SW,215,7.3,7.3,68,0.00,,---,0.00,VWS V14.01,2013-01-23 17:00:00,
2013-01-23 12:04:00,13.6,5.3,30.15,West,260,6.3,7.3,69,0.00,,---,0.00,VWS V14.01,2013-01-23 17:04:00,
2013-01-23 12:05:00,13.6,5.3,30.15,SW,215,9.3,9.3,69,0.00,,---,0.00,VWS V14.01,2013-01-23 17:05:00,
2013-01-23 12:06:00,13.6,5.3,30.15,SW,215,11.3,11.3,69,0.00,,---,0.00,VWS V14.01,2013-01-23 17:06:00,
2013-01-23 12:08:00,13.6,5.3,30.15,SW,215,6.3,11.3,69,0.00,,---,0.00,VWS V14.01,2013-01-23 17:08:00,
2013-01-23 12:10:00,13.8,5.5,30.15,South,170,8.9,8.9,69,0.00,,---,0.00,VWS V14.01,2013-01-23 17:10:00,
2013-01-23 12:12:00,13.8,5.5,30.15,SW,215,7.0,8.9,69,0.00,,---,0.00,VWS V14.01,2013-01-23 17:12:00,
2013-01-23 12:14:00,13.9,5.7,30.15,West,260,3.3,7.0,69,0.00,,---,0.00,VWS V14.01,2013-01-23 17:14:00,
2013-01-23 12:15:00,13.9,5.3,30.15,West,260,3.3,3.3,68,0.00,,---,0.00,VWS V14.01,2013-01-23 17:15:00,
2013-01-23 12:16:00,13.9,5.3,30.15,West,260,3.3,3.3,68,0.00,,---,0.00,VWS V14.01,2013-01-23 17:16:00,
2013-01-23 12:18:00,14.1,5.8,30.15,West,260,3.3,3.3,69,0.00,,---,0.00,VWS V14.01,2013-01-23 17:18:00,
2013-01-23 12:20:00,14.3,5.7,30.15,West,260,3.3,3.3,68,0.00,,---,0.00,VWS V14.01,2013-01-23 17:20:00,
2013-01-23 12:22:00,14.3,5.7,30.15,West,260,5.3,5.3,68,0.00,,---,0.00,VWS V14.01,2013-01-23 17:22:00,
2013-01-23 12:24:00,14.5,6.2,30.15,SW,215,11.9,11.9,69,0.00,,---,0.00,VWS V14.01,2013-01-23 17:24:00,
2013-01-23 12:26:00,14.3,5.7,30.15,SW,215,8.9,11.9,68,0.00,,---,0.00,VWS V14.01,2013-01-23 17:26:00,
2013-01-23 12:28:00,14.5,5.9,30.15,SW,215,6.3,8.9,68,0.00,,---,0.00,VWS V14.01,2013-01-23 17:28:00,
2013-01-23 12:30:00,14.7,6.3,30.15,SW,215,6.3,6.3,69,0.00,,---,0.00,VWS V14.01,2013-01-23 17:30:00,
2013-01-23 12:31:00,14.7,6.3,30.15,SW,215,6.3,6.3,69,0.00,,---,0.00,VWS V14.01,2013-01-23 17:31:00,
2013-01-23 12:32:00,14.8,6.5,30.12,SW,215,6.3,6.3,69,0.00,,---,0.00,VWS V14.01,2013-01-23 17:32:00,
2013-01-23 12:34:00,14.8,6.5,30.12,West,260,9.3,9.3,69,0.00,,---,0.00,VWS V14.01,2013-01-23 17:34:00,
2013-01-23 12:36:00,14.7,6.3,30.12,SW,215,5.6,12.6,69,0.00,,---,0.00,VWS V14.01,2013-01-23 17:36:00,
2013-01-23 12:38:00,14.8,6.5,30.12,SW,215,5.6,5.6,69,0.00,,---,0.00,VWS V14.01,2013-01-23 17:38:00,
2013-01-23 12:41:00,14.8,6.5,30.12,SW,215,5.6,5.6,69,0.00,,---,0.00,VWS V14.01,2013-01-23 17:41:00,
2013-01-23 12:42:00,14.8,6.5,30.12,SW,215,5.6,5.6,69,0.00,,---,0.00,VWS V14.01,2013-01-23 17:42:00,
2013-01-23 12:44:00,14.7,5.4,30.12,SW,215,5.6,5.6,66,0.00,,---,0.00,VWS V14.01,2013-01-23 17:44:00,
2013-01-23 12:46:00,14.5,5.2,30.12,SW,215,8.9,8.9,66,0.00,,---,0.00,VWS V14.01,2013-01-23 17:46:00,
2013-01-23 12:48:00,14.5,5.5,30.12,SW,215,12.6,12.6,67,0.00,,---,0.00,VWS V14.01,2013-01-23 17:48:00,
2013-01-23 12:50:00,14.5,5.5,30.12,West,260,7.9,12.6,67,0.00,,---,0.00,VWS V14.01,2013-01-23 17:50:00,
2013-01-23 12:51:00,14.5,5.5,30.12,South,170,8.6,8.6,67,0.00,,---,0.00,VWS V14.01,2013-01-23 17:51:00,
2013-01-23 12:52:00,14.5,5.5,30.12,South,170,8.6,8.6,67,0.00,,---,0.00,VWS V14.01,2013-01-23 17:52:00,
2013-01-23 12:54:00,14.7,5.7,30.12,West,260,8.9,10.6,67,0.00,,---,0.00,VWS V14.01,2013-01-23 17:54:00,
2013-01-23 12:56:00,14.7,5.7,30.12,West,260,11.3,11.3,67,0.00,,---,0.00,VWS V14.01,2013-01-23 17:56:00,
2013-01-23 12:58:00,14.7,5.7,30.12,SW,215,11.3,11.3,67,0.00,,---,0.00,VWS V14.01,2013-01-23 17:58:00,
2013-01-23 13:01:00,14.8,5.9,30.12,SW,215,8.3,11.3,67,0.00,,---,0.00,VWS V14.01,2013-01-23 18:01:00,
2013-01-23 13:04:00,14.8,5.9,30.12,SW,215,8.3,11.3,67,0.00,,---,0.00,VWS V14.01,2013-01-23 18:04:00,
2013-01-23 13:06:00,14.7,5.7,30.12,WSW,238,2.3,11.3,67,0.00,,---,0.00,VWS V14.01,2013-01-23 18:06:00,
2013-01-23 13:07:00,14.8,5.9,30.12,WSW,238,2.3,2.3,67,0.00,,---,0.00,VWS V14.01,2013-01-23 18:07:00,
2013-01-23 13:08:00,14.8,5.9,30.12,WSW,238,2.3,2.3,67,0.00,,---,0.00,VWS V14.01,2013-01-23 18:08:00,
2013-01-23 13:10:00,14.8,6.2,30.12,WSW,238,2.3,2.3,68,0.00,,---,0.00,VWS V14.01,2013-01-23 18:10:00,
2013-01-23 13:12:00,14.8,5.9,30.12,SW,215,11.9,11.9,67,0.00,,---,0.00,VWS V14.01,2013-01-23 18:12:00,
2013-01-23 13:14:00,14.8,5.9,30.12,SW,215,11.9,11.9,67,0.00,,---,0.00,VWS V14.01,2013-01-23 18:14:00,
2013-01-23 13:16:00,14.8,5.9,30.12,SW,215,11.9,11.9,67,0.00,,---,0.00,VWS V14.01,2013-01-23 18:16:00,
2013-01-23 13:17:00,14.8,5.9,30.09,SW,215,11.9,11.9,67,0.00,,---,0.00,VWS V14.01,2013-01-23 18:17:00,
2013-01-23 13:18:00,15.0,6.1,30.09,West,260,12.9,12.9,67,0.00,,---,0.00,VWS V14.01,2013-01-23 18:18:00,
2013-01-23 13:20:00,15.0,6.1,30.09,SW,215,11.9,12.9,67,0.00,,---,0.00,VWS V14.01,2013-01-23 18:20:00,
2013-01-23 13:22:00,15.0,5.7,30.09,SW,215,11.9,11.9,66,0.00,,---,0.00,VWS V14.01,2013-01-23 18:22:00,
2013-01-23 13:24:00,15.2,5.9,30.09,SW,215,11.9,11.9,66,0.00,,---,0.00,VWS V14.01,2013-01-23 18:24:00,
2013-01-23 13:26:00,15.2,5.9,30.09,SW,215,11.9,11.9,66,0.00,,---,0.00,VWS V14.01,2013-01-23 18:26:00,
2013-01-23 13:27:00,14.8,5.6,30.09,West,260,6.0,11.9,66,0.00,,---,0.00,VWS V14.01,2013-01-23 18:27:00,
2013-01-23 13:28:00,14.8,5.6,30.09,West,260,6.0,11.9,66,0.00,,---,0.00,VWS V14.01,2013-01-23 18:28:00,
2013-01-23 13:30:00,15.2,5.9,30.09,West,260,6.0,6.0,66,0.00,,---,0.00,VWS V14.01,2013-01-23 18:30:00,
2013-01-23 13:32:00,15.4,6.1,30.09,West,260,6.0,6.0,66,0.00,,---,0.00,VWS V14.01,2013-01-23 18:32:00,
2013-01-23 13:34:00,15.4,6.4,30.09,West,260,6.0,6.0,67,0.00,,---,0.00,VWS V14.01,2013-01-23 18:34:00,
2013-01-23 13:36:00,15.4,6.4,30.09,West,260,6.0,6.0,67,0.00,,---,0.00,VWS V14.01,2013-01-23 18:36:00,
2013-01-23 13:37:00,15.2,6.2,30.09,WSW,238,9.9,9.9,67,0.00,,---,0.00,VWS V14.01,2013-01-23 18:37:00,
2013-01-23 13:38:00,15.2,6.2,30.09,WSW,238,9.9,9.9,67,0.00,,---,0.00,VWS V14.01,2013-01-23 18:38:00,
2013-01-23 13:40:00,15.2,5.9,30.09,SW,215,6.0,9.9,66,0.00,,---,0.00,VWS V14.01,2013-01-23 18:40:00,
2013-01-23 13:42:00,15.2,5.9,30.09,SW,215,6.0,6.0,66,0.00,,---,0.00,VWS V14.01,2013-01-23 18:42:00,
2013-01-23 13:44:00,15.2,5.9,30.09,SW,215,6.0,6.0,66,0.00,,---,0.00,VWS V14.01,2013-01-23 18:44:00,
2013-01-23 13:46:00,15.2,5.9,30.09,SW,215,6.0,6.0,66,0.00,,---,0.00,VWS V14.01,2013-01-23 18:46:00,
2013-01-23 13:48:00,15.2,5.9,30.09,SW,215,6.0,6.0,66,0.00,,---,0.00,VWS V14.01,2013-01-23 18:48:00,
2013-01-23 13:50:00,15.2,5.9,30.09,SW,215,11.3,11.3,66,0.00,,---,0.00,VWS V14.01,2013-01-23 18:50:00,
2013-01-23 13:52:00,15.0,5.4,30.09,West,260,10.9,11.3,65,0.00,,---,0.00,VWS V14.01,2013-01-23 18:52:00,
2013-01-23 13:53:00,15.0,5.4,30.09,West,260,10.9,10.9,65,0.00,,---,0.00,VWS V14.01,2013-01-23 18:53:00,
2013-01-23 13:54:00,15.0,5.4,30.09,West,260,10.9,10.9,65,0.00,,---,0.00,VWS V14.01,2013-01-23 18:54:00,
2013-01-23 13:56:00,15.2,5.9,30.09,SW,215,7.0,10.9,66,0.00,,---,0.00,VWS V14.01,2013-01-23 18:56:00,
2013-01-23 13:58:00,15.4,6.1,30.09,West,260,7.9,7.9,66,0.00,,---,0.00,VWS V14.01,2013-01-23 18:58:00,
2013-01-23 14:03:00,15.4,6.1,30.09,SW,215,12.6,12.6,66,0.00,,---,0.00,VWS V14.01,2013-01-23 19:03:00,
2013-01-23 14:04:00,15.2,5.9,30.09,SW,215,12.6,12.6,66,0.00,,---,0.00,VWS V14.01,2013-01-23 19:04:00,
2013-01-23 14:06:00,15.2,5.9,30.09,South,170,8.6,12.6,66,0.00,,---,0.00,VWS V14.01,2013-01-23 19:06:00,
2013-01-23 14:08:00,15.4,6.1,30.09,South,170,8.3,8.3,66,0.00,,---,0.00,VWS V14.01,2013-01-23 19:08:00,
2013-01-23 14:10:00,15.4,6.1,30.09,South,170,8.3,8.3,66,0.00,,---,0.00,VWS V14.01,2013-01-23 19:10:00,
2013-01-23 14:12:00,15.4,5.7,30.09,South,170,4.0,8.3,65,0.00,,---,0.00,VWS V14.01,2013-01-23 19:12:00,
2013-01-23 14:13:00,15.6,6.2,30.09,WSW,238,8.6,8.6,66,0.00,,---,0.00,VWS V14.01,2013-01-23 19:13:00,
2013-01-23 14:14:00,15.6,6.2,30.09,WSW,238,8.6,8.6,66,0.00,,---,0.00,VWS V14.01,2013-01-23 19:14:00,
2013-01-23 14:16:00,15.4,6.1,30.09,SW,215,7.9,8.6,66,0.00,,---,0.00,VWS V14.01,2013-01-23 19:16:00,
2013-01-23 14:18:00,15.6,6.2,30.06,NW,305,5.0,5.6,66,0.00,,---,0.00,VWS V14.01,2013-01-23 19:18:00,
2013-01-23 14:20:00,15.6,6.2,30.06,SW,215,5.3,10.6,66,0.00,,---,0.00,VWS V14.01,2013-01-23 19:20:00,
2013-01-23 14:22:00,15.6,6.2,30.06,SW,215,12.9,12.9,66,0.00,,---,0.00,VWS V14.01,2013-01-23 19:22:00,
2013-01-23 14:23:00,15.7,6.4,30.06,NW,305,8.9,12.9,66,0.00,,---,0.00,VWS V14.01,2013-01-23 19:23:00,
2013-01-23 14:24:00,15.7,6.4,30.06,SW,215,8.3,12.9,66,0.00,,---,0.00,VWS V14.01,2013-01-23 19:24:00,
2013-01-23 14:26:00,15.6,6.2,30.06,SW,215,10.9,10.9,66,0.00,,---,0.00,VWS V14.01,2013-01-23 19:26:00,
2013-01-23 14:28:00,15.4,6.1,30.06,West,260,7.9,7.9,66,0.00,,---,0.00,VWS V14.01,2013-01-23 19:28:00,
2013-01-23 14:30:00,15.4,6.1,30.06,SW,215,17.6,17.6,66,0.00,,---,0.00,VWS V14.01,2013-01-23 19:30:00,
2013-01-23 14:32:00,15.2,5.9,30.06,SW,215,14.9,17.6,66,0.00,,---,0.00,VWS V14.01,2013-01-23 19:32:00,
2013-01-23 14:34:00,15.2,5.6,30.06,SW,215,14.9,14.9,65,0.00,,---,0.00,VWS V14.01,2013-01-23 19:34:00,
2013-01-23 14:36:00,15.2,5.6,30.06,SW,215,8.9,14.9,65,0.00,,---,0.00,VWS V14.01,2013-01-23 19:36:00,
2013-01-23 14:38:00,15.4,5.7,30.06,SW,215,8.9,8.9,65,0.00,,---,0.00,VWS V14.01,2013-01-23 19:38:00,
2013-01-23 14:39:00,15.4,5.4,30.06,SW,215,8.9,8.9,64,0.00,,---,0.00,VWS V14.01,2013-01-23 19:39:00,
2013-01-23 14:42:00,15.6,5.9,30.06,SW,215,8.9,8.9,65,0.00,,---,0.00,VWS V14.01,2013-01-23 19:42:00,
2013-01-23 14:44:00,15.6,5.9,30.06,SW,215,12.9,12.9,65,0.00,,---,0.00,VWS V14.01,2013-01-23 19:44:00,
2013-01-23 14:46:00,15.6,5.9,30.06,SW,215,12.6,12.9,65,0.00,,---,0.00,VWS V14.01,2013-01-23 19:46:00,
2013-01-23 14:48:00,15.6,6.2,30.06,SW,215,7.9,12.6,66,0.00,,---,0.00,VWS V14.01,2013-01-23 19:48:00,
2013-01-23 14:49:00,15.4,5.7,30.06,SW,215,9.9,9.9,65,0.00,,---,0.00,VWS V14.01,2013-01-23 19:49:00,
2013-01-23 14:50:00,15.4,5.7,30.06,SW,215,9.9,9.9,65,0.00,,---,0.00,VWS V14.01,2013-01-23 19:50:00,
2013-01-23 14:52:00,15.4,5.7,30.06,SW,215,9.9,9.9,65,0.00,,---,0.00,VWS V14.01,2013-01-23 19:52:00,
2013-01-23 14:54:00,15.6,5.9,30.06,SW,215,9.9,9.9,65,0.00,,---,0.00,VWS V14.01,2013-01-23 19:54:00,
2013-01-23 14:56:00,15.6,6.2,30.06,SW,215,9.9,9.9,66,0.00,,---,0.00,VWS V14.01,2013-01-23 19:56:00,
2013-01-23 14:58:00,15.7,6.4,30.06,SW,215,9.9,9.9,66,0.00,,---,0.00,VWS V14.01,2013-01-23 19:58:00,
2013-01-23 14:59:00,15.7,6.4,30.06,SW,215,9.9,9.9,66,0.00,,---,0.00,VWS V14.01,2013-01-23 19:59:00,
2013-01-23 15:05:00,15.7,6.4,30.06,SW,215,9.9,9.9,66,0.00,,---,0.00,VWS V14.01,2013-01-23 20:05:00,
2013-01-23 15:08:00,15.6,5.9,30.06,SW,215,9.9,9.9,65,0.00,,---,0.00,VWS V14.01,2013-01-23 20:08:00,
2013-01-23 15:10:00,15.6,6.2,30.06,SW,215,15.9,15.9,66,0.00,,---,0.00,VWS V14.01,2013-01-23 20:10:00,
2013-01-23 15:12:00,15.6,5.9,30.06,SW,215,15.9,15.9,65,0.00,,---,0.00,VWS V14.01,2013-01-23 20:12:00,
2013-01-23 15:14:00,15.6,5.9,30.06,SW,215,15.9,15.9,65,0.00,,---,0.00,VWS V14.01,2013-01-23 20:14:00,
2013-01-23 15:15:00,15.7,6.4,30.06,SW,215,15.9,15.9,66,0.00,,---,0.00,VWS V14.01,2013-01-23 20:15:00,
2013-01-23 15:16:00,15.7,6.1,30.06,SW,215,15.9,15.9,65,0.00,,---,0.00,VWS V14.01,2013-01-23 20:16:00,
2013-01-23 15:18:00,15.6,6.2,30.06,SW,215,15.9,15.9,66,0.00,,---,0.00,VWS V14.01,2013-01-23 20:18:00,
2013-01-23 15:20:00,15.7,6.4,30.06,SW,215,15.9,15.9,66,0.00,,---,0.00,VWS V14.01,2013-01-23 20:20:00,
2013-01-23 15:22:00,15.7,6.4,30.06,SW,215,15.9,15.9,66,0.00,,---,0.00,VWS V14.01,2013-01-23 20:22:00,
2013-01-23 15:26:00,15.6,6.2,30.06,SW,215,11.9,15.9,66,0.00,,---,0.00,VWS V14.01,2013-01-23 20:26:00,
2013-01-23 15:28:00,15.9,6.6,30.06,South,170,4.3,11.9,66,0.00,,---,0.00,VWS V14.01,2013-01-23 20:28:00,
2013-01-23 15:30:00,15.7,6.4,30.06,SW,215,8.6,8.6,66,0.00,,---,0.00,VWS V14.01,2013-01-23 20:30:00,
2013-01-23 15:31:00,15.7,6.4,30.06,SW,215,8.6,8.6,66,0.00,,---,0.00,VWS V14.01,2013-01-23 20:31:00,
2013-01-23 15:32:00,15.7,6.4,30.06,SW,215,8.6,8.6,66,0.00,,---,0.00,VWS V14.01,2013-01-23 20:32:00,
2013-01-23 15:34:00,15.6,6.2,30.06,SW,215,8.6,8.6,66,0.00,,---,0.00,VWS V14.01,2013-01-23 20:34:00,
2013-01-23 15:36:00,15.7,6.7,30.06,SW,215,8.6,8.6,67,0.00,,---,0.00,VWS V14.01,2013-01-23 20:36:00,
2013-01-23 15:38:00,15.6,6.6,30.06,SW,215,8.6,8.6,67,0.00,,---,0.00,VWS V14.01,2013-01-23 20:38:00,
2013-01-23 15:41:00,15.6,6.6,30.06,SW,215,8.9,8.9,67,0.00,,---,0.00,VWS V14.01,2013-01-23 20:41:00,
2013-01-23 15:44:00,15.4,6.1,30.06,West,260,11.6,11.6,66,0.00,,---,0.00,VWS V14.01,2013-01-23 20:44:00,
2013-01-23 15:46:00,15.4,6.1,30.06,SW,215,9.3,9.3,66,0.00,,---,0.00,VWS V14.01,2013-01-23 20:46:00,
2013-01-23 15:48:00,15.4,6.1,30.06,SW,215,11.3,11.3,66,0.00,,---,0.00,VWS V14.01,2013-01-23 20:48:00,
2013-01-23 15:50:00,15.2,5.9,30.06,SW,215,11.3,11.3,66,0.00,,---,0.00,VWS V14.01,2013-01-23 20:50:00,
2013-01-23 15:52:00,15.2,5.9,30.06,SW,215,7.9,11.3,66,0.00,,---,0.00,VWS V14.01,2013-01-23 20:52:00,
2013-01-23 15:54:00,15.2,5.9,30.06,SW,215,10.9,11.9,66,0.00,,---,0.00,VWS V14.01,2013-01-23 20:54:00,
2013-01-23 15:56:00,15.0,5.4,30.06,SW,215,6.3,10.9,65,0.00,,---,0.00,VWS V14.01,2013-01-23 20:56:00,
2013-01-23 15:57:00,15.0,5.4,30.06,SW,215,6.3,8.3,65,0.00,,---,0.00,VWS V14.01,2013-01-23 20:57:00,
2013-01-23 15:58:00,15.0,5.4,30.06,SW,215,6.3,8.3,65,0.00,,---,0.00,VWS V14.01,2013-01-23 20:58:00,
2013-01-23 16:02:00,14.8,5.2,30.06,SW,215,6.3,6.3,65,0.00,,---,0.00,VWS V14.01,2013-01-23 21:02:00,
2013-01-23 16:07:00,15.0,5.7,30.06,SW,215,8.9,8.9,66,0.00,,---,0.00,VWS V14.01,2013-01-23 21:07:00,
2013-01-23 16:08:00,15.0,5.7,30.06,SW,215,8.9,8.9,66,0.00,,---,0.00,VWS V14.01,2013-01-23 21:08:00,
2013-01-23 16:10:00,15.2,6.2,30.06,SW,215,8.9,8.9,67,0.00,,---,0.00,VWS V14.01,2013-01-23 21:10:00,
2013-01-23 16:12:00,15.0,5.7,30.06,SW,215,8.9,8.9,66,0.00,,---,0.00,VWS V14.01,2013-01-23 21:12:00,
2013-01-23 16:14:00,15.0,5.7,30.06,SW,215,8.9,8.9,66,0.00,,---,0.00,VWS V14.01,2013-01-23 21:14:00,
2013-01-23 16:16:00,14.8,5.9,30.06,SW,215,8.9,8.9,67,0.00,,---,0.00,VWS V14.01,2013-01-23 21:16:00,
2013-01-23 16:17:00,14.8,5.9,30.03,SW,215,8.9,8.9,67,0.00,,---,0.00,VWS V14.01,2013-01-23 21:17:00,
2013-01-23 16:18:00,14.8,5.9,30.03,SW,215,8.9,8.9,67,0.00,,---,0.00,VWS V14.01,2013-01-23 21:18:00,
2013-01-23 16:22:00,14.8,5.9,30.03,SW,215,8.9,8.9,67,0.00,,---,0.00,VWS V14.01,2013-01-23 21:22:00,
2013-01-23 16:23:00,14.7,5.7,30.03,SW,215,8.9,8.9,67,0.00,,---,0.00,VWS V14.01,2013-01-23 21:23:00,
2013-01-23 16:24:00,14.7,5.7,30.03,SW,215,8.9,8.9,67,0.00,,---,0.00,VWS V14.01,2013-01-23 21:24:00,
2013-01-23 16:26:00,14.7,5.7,30.03,SW,215,8.9,8.9,67,0.00,,---,0.00,VWS V14.01,2013-01-23 21:26:00,
2013-01-23 16:28:00,14.5,5.5,30.03,SW,215,8.9,8.9,67,0.00,,---,0.00,VWS V14.01,2013-01-23 21:28:00,
2013-01-23 16:30:00,14.5,5.2,30.03,SW,215,8.9,8.9,66,0.00,,---,0.00,VWS V14.01,2013-01-23 21:30:00,
2013-01-23 16:32:00,14.5,5.5,30.03,SW,215,8.9,8.9,67,0.00,,---,0.00,VWS V14.01,2013-01-23 21:32:00,
2013-01-23 16:33:00,14.3,5.4,30.03,SW,215,8.9,8.9,67,0.00,,---,0.00,VWS V14.01,2013-01-23 21:33:00,
2013-01-23 16:34:00,14.3,5.4,30.03,SW,215,8.9,8.9,67,0.00,,---,0.00,VWS V14.01,2013-01-23 21:34:00,
2013-01-23 16:36:00,14.3,5.0,30.03,SW,215,8.9,8.9,66,0.00,,---,0.00,VWS V14.01,2013-01-23 21:36:00,
2013-01-23 16:38:00,14.3,5.4,30.03,SW,215,8.9,8.9,67,0.00,,---,0.00,VWS V14.01,2013-01-23 21:38:00,
2013-01-23 16:42:00,14.3,5.4,30.03,SW,215,8.9,8.9,67,0.00,,---,0.00,VWS V14.01,2013-01-23 21:42:00,
2013-01-23 16:44:00,14.3,5.4,30.03,SW,215,8.9,8.9,67,0.00,,---,0.00,VWS V14.01,2013-01-23 21:44:00,
2013-01-23 16:46:00,14.1,5.5,30.03,SW,215,8.9,8.9,68,0.00,,---,0.00,VWS V14.01,2013-01-23 21:46:00,
2013-01-23 16:48:00,14.1,5.5,30.03,SW,215,8.9,8.9,68,0.00,,---,0.00,VWS V14.01,2013-01-23 21:48:00,
2013-01-23 16:49:00,13.9,5.3,30.03,SW,215,8.9,8.9,68,0.00,,---,0.00,VWS V14.01,2013-01-23 21:49:00,
2013-01-23 16:50:00,13.9,5.3,30.03,SW,215,8.9,8.9,68,0.00,,---,0.00,VWS V14.01,2013-01-23 21:50:00,
2013-01-23 16:52:00,13.9,5.3,30.03,SW,215,8.9,8.9,68,0.00,,---,0.00,VWS V14.01,2013-01-23 21:52:00,
2013-01-23 16:54:00,13.9,5.3,30.03,SW,215,8.9,8.9,68,0.00,,---,0.00,VWS V14.01,2013-01-23 21:54:00,
2013-01-23 16:56:00,13.9,5.3,30.03,SW,215,8.9,8.9,68,0.00,,---,0.00,VWS V14.01,2013-01-23 21:56:00,
2013-01-23 16:58:00,13.9,5.3,30.03,SW,215,8.9,8.9,68,0.00,,---,0.00,VWS V14.01,2013-01-23 21:58:00,
2013-01-23 16:59:00,13.9,5.3,30.03,SW,215,8.9,8.9,68,0.00,,---,0.00,VWS V14.01,2013-01-23 21:59:00,
2013-01-23 17:05:00,13.9,5.3,30.03,SW,215,8.9,8.9,68,0.00,,---,0.00,VWS V14.01,2013-01-23 22:05:00,
2013-01-23 17:08:00,13.8,5.2,30.03,SW,215,8.3,8.9,68,0.00,,---,0.00,VWS V14.01,2013-01-23 22:08:00,
2013-01-23 17:10:00,13.8,5.2,30.03,SW,215,8.3,8.3,68,0.00,,---,0.00,VWS V14.01,2013-01-23 22:10:00,
2013-01-23 17:12:00,13.8,5.5,30.03,SW,215,8.3,8.3,69,0.00,,---,0.00,VWS V14.01,2013-01-23 22:12:00,
2013-01-23 17:14:00,13.6,5.0,30.03,SW,215,8.3,8.3,68,0.00,,---,0.00,VWS V14.01,2013-01-23 22:14:00,
2013-01-23 17:15:00,13.6,5.0,30.03,SW,215,8.3,8.3,68,0.00,,---,0.00,VWS V14.01,2013-01-23 22:15:00,
2013-01-23 17:16:00,13.6,5.0,30.03,SW,215,8.3,8.3,68,0.00,,---,0.00,VWS V14.01,2013-01-23 22:16:00,
2013-01-23 17:18:00,13.6,5.3,30.03,SW,215,8.3,8.3,69,0.00,,---,0.00,VWS V14.01,2013-01-23 22:18:00,
2013-01-23 17:20:00,13.6,5.3,30.03,SW,215,8.3,8.3,69,0.00,,---,0.00,VWS V14.01,2013-01-23 22:20:00,
2013-01-23 17:22:00,13.6,5.3,30.03,SW,215,8.3,8.3,69,0.00,,---,0.00,VWS V14.01,2013-01-23 22:22:00,
2013-01-23 17:24:00,13.6,5.3,30.03,SW,215,8.3,8.3,69,0.00,,---,0.00,VWS V14.01,2013-01-23 22:24:00,
2013-01-23 17:25:00,13.6,5.3,30.03,SW,215,8.3,8.3,69,0.00,,---,0.00,VWS V14.01,2013-01-23 22:25:00,
2013-01-23 17:26:00,13.6,5.3,30.03,SW,215,8.3,8.3,69,0.00,,---,0.00,VWS V14.01,2013-01-23 22:26:00,
2013-01-23 17:28:00,13.6,5.3,30.03,SW,215,8.3,8.3,69,0.00,,---,0.00,VWS V14.01,2013-01-23 22:28:00,
2013-01-23 17:30:00,13.6,5.6,30.03,SW,215,8.3,8.3,70,0.00,,---,0.00,VWS V14.01,2013-01-23 22:30:00,
2013-01-23 17:32:00,13.6,5.6,30.03,SW,215,8.3,8.3,70,0.00,,---,0.00,VWS V14.01,2013-01-23 22:32:00,
2013-01-23 17:34:00,13.6,5.6,30.03,SW,215,8.3,8.3,70,0.00,,---,0.00,VWS V14.01,2013-01-23 22:34:00,
2013-01-23 17:35:00,13.6,5.6,30.03,SW,215,8.3,8.3,70,0.00,,---,0.00,VWS V14.01,2013-01-23 22:35:00,
2013-01-23 17:36:00,13.6,5.6,30.03,SW,215,8.3,8.3,70,0.00,,---,0.00,VWS V14.01,2013-01-23 22:36:00,
2013-01-23 17:38:00,13.6,5.6,30.03,SW,215,8.3,8.3,70,0.00,,---,0.00,VWS V14.01,2013-01-23 22:38:00,
2013-01-23 17:40:00,13.4,5.5,30.03,SW,215,8.3,8.3,70,0.00,,---,0.00,VWS V14.01,2013-01-23 22:40:00,
2013-01-23 17:41:00,13.4,5.5,30.03,SW,215,8.3,8.3,70,0.00,,---,0.00,VWS V14.01,2013-01-23 22:41:00,
2013-01-23 17:42:00,13.4,5.5,30.03,SW,215,8.3,8.3,70,0.00,,---,0.00,VWS V14.01,2013-01-23 22:42:00,
2013-01-23 17:44:00,13.4,5.8,30.03,SW,215,8.3,8.3,71,0.00,,---,0.00,VWS V14.01,2013-01-23 22:44:00,
2013-01-23 17:46:00,13.4,5.8,30.03,SW,215,8.3,8.3,71,0.00,,---,0.00,VWS V14.01,2013-01-23 22:46:00,
2013-01-23 17:48:00,13.2,5.6,30.03,SW,215,8.3,8.3,71,0.00,,---,0.00,VWS V14.01,2013-01-23 22:48:00,
2013-01-23 17:50:00,13.2,5.6,30.03,SW,215,8.3,8.3,71,0.00,,---,0.00,VWS V14.01,2013-01-23 22:50:00,
2013-01-23 17:51:00,13.2,5.6,30.03,SW,215,8.3,8.3,71,0.00,,---,0.00,VWS V14.01,2013-01-23 22:51:00,
2013-01-23 17:52:00,13.2,5.6,30.03,SW,215,8.3,8.3,71,0.00,,---,0.00,VWS V14.01,2013-01-23 22:52:00,
2013-01-23 17:54:00,13.2,5.6,30.03,SW,215,8.3,8.3,71,0.00,,---,0.00,VWS V14.01,2013-01-23 22:54:00,
2013-01-23 17:56:00,13.2,5.6,30.03,SW,215,8.3,8.3,71,0.00,,---,0.00,VWS V14.01,2013-01-23 22:56:00,
2013-01-23 17:58:00,13.2,5.6,30.03,SW,215,8.3,8.3,71,0.00,,---,0.00,VWS V14.01,2013-01-23 22:58:00,
2013-01-23 18:00:00,13.2,5.6,30.03,SW,215,8.3,8.3,71,0.00,,---,0.00,VWS V14.01,2013-01-23 23:00:00,
2013-01-23 18:01:00,13.2,5.6,30.03,SW,215,8.3,8.3,71,0.00,,---,0.00,VWS V14.01,2013-01-23 23:01:00,
2013-01-23 18:02:00,13.2,5.6,30.03,SW,215,8.3,8.3,71,0.00,,---,0.00,VWS V14.01,2013-01-23 23:02:00,
2013-01-23 18:04:00,13.2,5.6,30.03,SW,215,8.3,8.3,71,0.00,,---,0.00,VWS V14.01,2013-01-23 23:04:00,
2013-01-23 18:06:00,13.2,5.6,30.03,SW,215,8.3,8.3,71,0.00,,---,0.00,VWS V14.01,2013-01-23 23:06:00,
2013-01-23 18:08:00,13.2,5.6,30.03,SW,215,8.3,8.3,71,0.00,,---,0.00,VWS V14.01,2013-01-23 23:08:00,
2013-01-23 18:10:00,13.2,5.6,30.03,SW,215,8.3,8.3,71,0.00,,---,0.00,VWS V14.01,2013-01-23 23:10:00,
2013-01-23 18:11:00,13.2,5.6,30.03,SW,215,8.3,8.3,71,0.00,,---,0.00,VWS V14.01,2013-01-23 23:11:00,
2013-01-23 18:12:00,13.2,5.6,30.03,SW,215,8.3,8.3,71,0.00,,---,0.00,VWS V14.01,2013-01-23 23:12:00,
2013-01-23 18:14:00,13.2,5.6,30.03,SW,215,8.3,8.3,71,0.00,,---,0.00,VWS V14.01,2013-01-23 23:14:00,
2013-01-23 18:16:00,13.2,5.6,30.03,SW,215,8.3,8.3,71,0.00,,---,0.00,VWS V14.01,2013-01-23 23:16:00,
2013-01-23 18:18:00,13.2,5.6,30.03,SW,215,8.3,8.3,71,0.00,,---,0.00,VWS V14.01,2013-01-23 23:18:00,
2013-01-23 18:20:00,13.2,5.6,30.03,SW,215,8.3,8.3,71,0.00,,---,0.00,VWS V14.01,2013-01-23 23:20:00,
2013-01-23 18:22:00,13.2,5.6,30.03,SW,215,8.3,8.3,71,0.00,,---,0.00,VWS V14.01,2013-01-23 23:22:00,
2013-01-23 18:24:00,13.2,5.6,30.03,SW,215,8.3,8.3,71,0.00,,---,0.00,VWS V14.01,2013-01-23 23:24:00,
2013-01-23 18:26:00,13.2,5.6,30.03,SW,215,8.3,8.3,71,0.00,,---,0.00,VWS V14.01,2013-01-23 23:26:00,
2013-01-23 18:27:00,13.0,5.4,30.03,SW,215,8.3,8.3,71,0.00,,---,0.00,VWS V14.01,2013-01-23 23:27:00,
2013-01-23 18:28:00,13.0,5.4,30.03,SW,215,8.3,8.3,71,0.00,,---,0.00,VWS V14.01,2013-01-23 23:28:00,
2013-01-23 18:30:00,13.0,5.4,30.03,SW,215,8.3,8.3,71,0.00,,---,0.00,VWS V14.01,2013-01-23 23:30:00,
2013-01-23 18:32:00,13.0,5.4,30.00,SW,215,8.3,8.3,71,0.00,,---,0.00,VWS V14.01,2013-01-23 23:32:00,
2013-01-23 18:34:00,13.0,5.4,30.00,SW,215,8.3,8.3,71,0.00,,---,0.00,VWS V14.01,2013-01-23 23:34:00,
2013-01-23 18:36:00,13.2,5.6,30.00,SW,215,8.3,8.3,71,0.00,,---,0.00,VWS V14.01,2013-01-23 23:36:00,
2013-01-23 18:37:00,13.0,5.4,30.00,SW,215,8.3,8.3,71,0.00,,---,0.00,VWS V14.01,2013-01-23 23:37:00,
2013-01-23 18:38:00,13.0,5.4,30.00,SW,215,8.3,8.3,71,0.00,,---,0.00,VWS V14.01,2013-01-23 23:38:00,
2013-01-23 18:40:00,13.0,5.4,30.00,SW,215,8.3,8.3,71,0.00,,---,0.00,VWS V14.01,2013-01-23 23:40:00,
2013-01-23 18:42:00,13.2,5.6,30.00,SW,215,8.3,8.3,71,0.00,,---,0.00,VWS V14.01,2013-01-23 23:42:00,
2013-01-23 18:44:00,13.2,5.6,30.00,SW,215,8.3,8.3,71,0.00,,---,0.00,VWS V14.01,2013-01-23 23:44:00,
2013-01-23 18:46:00,13.2,5.6,30.00,SW,215,8.3,8.3,71,0.00,,---,0.00,VWS V14.01,2013-01-23 23:46:00,
2013-01-23 18:47:00,13.2,5.6,30.00,SW,215,8.3,8.3,71,0.00,,---,0.00,VWS V14.01,2013-01-23 23:47:00,
2013-01-23 18:48:00,13.2,5.6,30.00,SW,215,8.3,8.3,71,0.00,,---,0.00,VWS V14.01,2013-01-23 23:48:00,
2013-01-23 18:50:00,13.2,5.6,30.00,SW,215,8.3,8.3,71,0.00,,---,0.00,VWS V14.01,2013-01-23 23:50:00,
2013-01-23 18:52:00,13.2,5.6,30.00,SW,215,8.3,8.3,71,0.00,,---,0.00,VWS V14.01,2013-01-23 23:52:00,
2013-01-23 18:54:00,13.2,5.6,30.00,SW,215,8.3,8.3,71,0.00,,---,0.00,VWS V14.01,2013-01-23 23:54:00,
2013-01-23 18:56:00,13.2,5.6,30.00,SW,215,8.3,8.3,71,0.00,,---,0.00,VWS V14.01,2013-01-23 23:56:00,
2013-01-23 18:58:00,13.2,5.6,30.00,SW,215,8.3,8.3,71,0.00,,---,0.00,VWS V14.01,2013-01-23 23:58:00,
2013-01-23 19:00:00,13.2,5.6,30.00,SW,215,8.3,8.3,71,0.00,,---,0.00,VWS V14.01,2013-01-24 00:00:00,
2013-01-23 19:02:00,13.2,5.6,30.00,SW,215,8.3,8.3,71,0.00,,---,0.00,VWS V14.01,2013-01-24 00:02:00,
2013-01-23 19:03:00,13.2,5.6,30.00,SW,215,8.3,8.3,71,0.00,,---,0.00,VWS V14.01,2013-01-24 00:03:00,
2013-01-23 19:04:00,13.2,5.6,30.00,SW,215,8.3,8.3,71,0.00,,---,0.00,VWS V14.01,2013-01-24 00:04:00,
2013-01-23 19:08:00,13.2,5.6,30.00,SW,215,8.3,8.3,71,0.00,,---,0.00,VWS V14.01,2013-01-24 00:08:00,
2013-01-23 19:14:00,13.4,7.6,30.00,WSW,238,6.0,6.0,77,0.00,,---,0.00,VWS V14.01,2013-01-24 00:14:00,
2013-01-23 19:19:00,13.4,7.6,30.00,SW,215,11.6,11.6,77,0.00,,---,0.00,VWS V14.01,2013-01-24 00:19:00,
2013-01-23 19:24:00,13.6,7.7,30.00,SW,215,11.6,11.6,77,0.00,,---,0.00,VWS V14.01,2013-01-24 00:24:00,
2013-01-23 19:29:00,13.6,8.0,30.00,South,170,3.3,5.0,78,0.00,,---,0.00,VWS V14.01,2013-01-24 00:29:00,
2013-01-23 19:34:00,13.6,8.0,30.00,South,170,3.3,3.3,78,0.00,,---,0.00,VWS V14.01,2013-01-24 00:34:00,
2013-01-23 19:39:00,13.6,8.0,30.00,SW,215,4.0,5.0,78,0.00,,---,0.00,VWS V14.01,2013-01-24 00:39:00,
2013-01-23 19:44:00,13.6,8.3,30.00,SW,215,4.6,4.6,79,0.00,,---,0.00,VWS V14.01,2013-01-24 00:44:00,
2013-01-23 19:49:00,13.6,8.3,30.00,West,260,4.0,4.6,79,0.00,,---,0.00,VWS V14.01,2013-01-24 00:49:00,
2013-01-23 19:54:00,13.8,8.5,30.00,SW,215,5.6,5.6,79,0.00,,---,0.00,VWS V14.01,2013-01-24 00:54:00,
2013-01-23 19:59:00,13.8,8.5,30.00,West,260,6.3,6.3,79,0.00,,---,0.00,VWS V14.01,2013-01-24 00:59:00,
2013-01-23 20:04:00,13.8,8.5,30.00,NW,305,4.0,5.6,79,0.00,,---,0.00,VWS V14.01,2013-01-24 01:04:00,
2013-01-23 20:09:00,13.9,8.6,30.00,West,260,3.0,5.0,79,0.00,,---,0.00,VWS V14.01,2013-01-24 01:09:00,
2013-01-23 20:15:00,13.9,8.9,30.00,West,260,5.0,5.0,80,0.00,,---,0.00,VWS V14.01,2013-01-24 01:15:00,
2013-01-23 20:20:00,14.1,9.1,30.00,West,260,5.3,5.3,80,0.00,,---,0.00,VWS V14.01,2013-01-24 01:20:00,
2013-01-23 20:25:00,14.3,9.3,30.00,SW,215,3.6,4.0,80,0.00,,---,0.00,VWS V14.01,2013-01-24 01:25:00,
2013-01-23 20:30:00,14.3,9.3,30.00,West,260,4.0,4.0,80,0.00,,---,0.00,VWS V14.01,2013-01-24 01:30:00,
2013-01-23 20:35:00,14.3,9.3,30.00,WSW,238,3.0,3.0,80,0.00,,---,0.00,VWS V14.01,2013-01-24 01:35:00,
2013-01-23 20:40:00,14.5,9.4,30.00,West,260,4.3,4.3,80,0.00,,---,0.00,VWS V14.01,2013-01-24 01:40:00,
2013-01-23 20:45:00,14.5,9.4,30.00,SW,215,5.6,5.6,80,0.00,,---,0.00,VWS V14.01,2013-01-24 01:45:00,
2013-01-23 20:50:00,14.7,9.6,30.00,West,260,6.3,6.3,80,0.00,,---,0.00,VWS V14.01,2013-01-24 01:50:00,
2013-01-23 20:55:00,14.7,9.6,30.00,West,260,6.3,6.3,80,0.00,,---,0.00,VWS V14.01,2013-01-24 01:55:00,
2013-01-23 21:00:00,14.7,9.9,30.00,West,260,6.3,6.3,81,0.00,,---,0.00,VWS V14.01,2013-01-24 02:00:00,
2013-01-23 21:05:00,14.8,10.1,30.00,WSW,238,3.6,4.0,81,0.00,,---,0.00,VWS V14.01,2013-01-24 02:05:00,
2013-01-23 21:10:00,14.8,10.1,30.00,West,260,4.6,4.6,81,0.00,,---,0.00,VWS V14.01,2013-01-24 02:10:00,
2013-01-23 21:15:00,14.8,10.1,30.00,West,260,4.6,4.6,81,0.00,,---,0.00,VWS V14.01,2013-01-24 02:15:00,
2013-01-23 21:20:00,15.0,10.2,30.03,NW,305,4.0,4.0,81,0.00,,---,0.00,VWS V14.01,2013-01-24 02:20:00,
2013-01-23 21:25:00,15.0,10.2,30.03,West,260,2.3,2.3,81,0.00,,---,0.00,VWS V14.01,2013-01-24 02:25:00,
2013-01-23 21:30:00,15.2,10.4,30.03,NW,305,3.6,3.6,81,0.00,,---,0.00,VWS V14.01,2013-01-24 02:30:00,
2013-01-23 21:35:00,15.4,10.6,30.03,NW,305,1.7,4.6,81,0.00,,---,0.00,VWS V14.01,2013-01-24 02:35:00,
2013-01-23 21:40:00,15.4,10.6,30.03,WNW,282,0.0,0.0,81,0.00,,---,0.00,VWS V14.01,2013-01-24 02:40:00,
2013-01-23 21:46:00,15.6,10.8,30.03,North,350,3.3,3.3,81,0.00,,---,0.00,VWS V14.01,2013-01-24 02:46:00,
2013-01-23 21:51:00,15.6,10.8,30.03,North,350,4.3,4.3,81,0.00,,---,0.00,VWS V14.01,2013-01-24 02:51:00,
2013-01-23 21:56:00,15.7,11.0,30.03,North,350,4.3,4.3,81,0.00,,---,0.00,VWS V14.01,2013-01-24 02:56:00,
2013-01-23 22:01:00,15.9,11.4,30.03,North,350,4.3,4.3,82,0.00,,---,0.00,VWS V14.01,2013-01-24 03:01:00,
2013-01-23 22:06:00,15.6,11.1,30.06,NE,35,5.0,5.0,82,0.00,,---,0.00,VWS V14.01,2013-01-24 03:06:00,
2013-01-23 22:11:00,15.2,10.7,30.06,North,350,4.3,10.6,82,0.00,,---,0.00,VWS V14.01,2013-01-24 03:11:00,
2013-01-23 22:16:00,15.0,10.5,30.06,North,350,4.0,4.3,82,0.00,,---,0.00,VWS V14.01,2013-01-24 03:16:00,
2013-01-23 22:21:00,14.8,10.4,30.06,NNW,328,8.3,8.3,82,0.00,,---,0.00,VWS V14.01,2013-01-24 03:21:00,
2013-01-23 22:26:00,14.7,9.9,30.06,North,350,4.3,4.3,81,0.00,,---,0.00,VWS V14.01,2013-01-24 03:26:00,
2013-01-23 22:31:00,14.5,9.7,30.06,North,350,4.3,4.3,81,0.00,,---,0.00,VWS V14.01,2013-01-24 03:31:00,
2013-01-23 22:36:00,14.5,9.7,30.06,North,350,4.3,4.3,81,0.00,,---,0.00,VWS V14.01,2013-01-24 03:36:00,
2013-01-23 22:41:00,14.3,9.6,30.06,NW,305,8.3,8.3,81,0.00,,---,0.00,VWS V14.01,2013-01-24 03:41:00,
2013-01-23 22:46:00,14.3,9.6,30.09,NE,35,4.0,4.0,81,0.00,,---,0.00,VWS V14.01,2013-01-24 03:46:00,
2013-01-23 22:51:00,14.3,9.6,30.09,NW,305,7.3,8.9,81,0.00,,---,0.00,VWS V14.01,2013-01-24 03:51:00,
2013-01-23 22:56:00,13.9,8.9,30.09,North,350,4.0,7.3,80,0.00,,---,0.00,VWS V14.01,2013-01-24 03:56:00,
2013-01-23 23:01:00,13.9,8.9,30.09,North,350,4.0,4.0,80,0.00,,---,0.00,VWS V14.01,2013-01-24 04:01:00,
2013-01-23 23:06:00,13.8,8.8,30.09,North,350,4.3,4.3,80,0.00,,---,0.00,VWS V14.01,2013-01-24 04:06:00,
2013-01-23 23:11:00,13.6,8.3,30.09,North,350,4.3,4.3,79,0.00,,---,0.00,VWS V14.01,2013-01-24 04:11:00,
2013-01-23 23:17:00,13.6,8.3,30.09,North,350,3.6,3.6,79,0.00,,---,0.00,VWS V14.01,2013-01-24 04:17:00,
2013-01-23 23:22:00,13.4,8.4,30.09,North,350,4.6,4.6,80,0.00,,---,0.00,VWS V14.01,2013-01-24 04:22:00,
2013-01-23 23:27:00,13.2,8.2,30.09,North,350,5.6,5.6,80,0.00,,---,0.00,VWS V14.01,2013-01-24 04:27:00,
2013-01-23 23:32:00,13.2,8.2,30.09,North,350,5.6,5.6,80,0.00,,---,0.00,VWS V14.01,2013-01-24 04:32:00,
2013-01-23 23:37:00,12.9,7.9,30.09,North,350,8.3,8.3,80,0.00,,---,0.00,VWS V14.01,2013-01-24 04:37:00,
2013-01-23 23:42:00,12.7,7.7,30.09,North,350,8.3,8.3,80,0.00,,---,0.00,VWS V14.01,2013-01-24 04:42:00,
2013-01-23 23:47:00,12.3,7.3,30.12,North,350,8.3,8.3,80,0.00,,---,0.00,VWS V14.01,2013-01-24 04:47:00,
2013-01-23 23:52:00,12.1,7.2,30.12,NE,35,4.3,4.3,80,0.00,,---,0.00,VWS V14.01,2013-01-24 04:52:00,
2013-01-23 23:57:00,12.0,7.0,30.12,North,350,2.3,3.6,80,0.00,,---,0.00,VWS V14.01,2013-01-24 04:57:00,